GFSNE_sfc_thetae_000.txt.gz
Theta_e
328 329 328 325 328 324 323 323 320 316 320 325 324 331 333 332 331 330 328 320 320 317 317 318 319 319 319 320 317 315 314 311 308 307 306 307 306 304
330 330 326 327 324 322 321 321 325 326 317 323 323 328 330 327 326 330 328 320 319 316 316 315 315 315 317 316 314 313 311 308 306 306 305 304 303 302
331 327 326 328 325 324 323 324 327 325 321 321 323 327 327 325 323 328 326 323 320 316 315 314 313 313 314 313 311 310 309 307 305 304 303 302 301 300
332 332 327 330 331 332 329 329 329 329 325 320 323 324 327 330 329 331 327 327 325 314 313 311 311 311 311 310 309 308 307 306 305 303 302 301 301 300
335 334 333 334 332 332 331 325 324 323 325 320 319 323 325 327 328 327 326 326 323 311 310 310 310 310 307 306 306 307 304 303 302 303 302 300 300 298
335 335 334 333 332 333 329 326 324 323 323 321 321 321 322 324 325 321 319 320 317 312 310 308 308 309 308 306 305 305 303 301 300 300 301 300 299 298
331 331 332 324 317 321 321 327 329 323 322 320 319 320 320 320 321 322 321 321 320 318 313 312 308 308 306 307 307 305 303 301 300 300 300 300 299 298
327 325 323 318 313 308 310 310 323 328 326 321 320 320 324 323 323 322 321 319 315 321 317 314 312 309 309 308 304 302 301 300 300 299 299 298 297 297
330 329 323 320 322 323 306 307 307 307 311 330 327 325 325 328 328 324 324 321 319 321 317 313 315 309 310 308 303 301 300 299 299 299 298 297 296 296
329 328 327 326 322 323 323 323 323 323 324 323 330 331 331 330 330 327 327 325 324 322 320 311 315 312 311 309 301 300 299 299 299 298 298 296 296 295
321 321 322 320 300 301 319 320 321 321 297 298 299 296 295 296 306 322 317 316 314 315 319 312 311 309 311 310 308 299 298 298 297 297 297 296 296 295
316 315 299 309 295 297 321 321 319 320 318 314 316 306 300 308 297 315 315 311 312 310 316 310 309 309 305 310 310 308 302 298 297 296 296 296 296 295
310 311 308 295 294 294 296 319 316 317 310 313 314 314 315 314 313 312 314 312 308 308 311 313 308 306 305 304 307 308 307 304 300 298 295 295 294 293
315 316 314 292 292 293 296 296 295 297 312 314 313 313 313 313 314 314 316 315 313 313 315 313 308 305 301 300 301 306 306 306 305 301 301 296 293 293
321 308 298 293 292 292 292 293 290 309 312 313 314 315 316 316 316 314 315 314 313 313 311 310 307 306 304 299 300 300 299 303 304 303 301 300 298 298
306 315 309 304 302 303 307 303 309 313 315 316 316 316 315 315 313 311 312 311 307 305 307 311 310 308 303 301 299 301 300 296 303 301 302 301 299 298
314 318 316 315 315 316 317 317 318 319 317 318 317 317 317 314 311 310 306 306 307 307 308 309 312 311 308 306 301 302 303 302 304 303 303 298 298 298
311 317 318 318 317 318 321 323 324 313 320 315 312 310 306 304 304 304 306 305 305 306 306 307 307 305 305 307 305 302 303 303 304 303 301 296 296 298
315 319 318 317 319 322 323 323 319 312 311 309 305 301 299 302 304 306 305 305 305 305 306 306 305 303 298 295 302 300 302 302 302 301 300 296 294 297
317 318 319 321 321 318 315 308 307 305 302 301 303 304 304 304 304 304 304 304 304 303 303 304 303 301 298 298 299 302 292 301 300 299 297 297 296 295
318 318 320 318 312 308 304 303 303 302 303 304 303 304 304 303 302 303 303 293 295 302 301 301 303 288 304 303 299 299 302 292 294 295 293 289 291 293
318 314 309 305 305 305 302 302 300 299 301 303 303 303 302 302 301 301 302 301 301 300 300 301 303 303 301 297 294 295 297 298 295 293 293 292 291 291
309 304 305 307 308 301 303 306 304 302 301 300 300 300 301 301 302 302 301 301 300 299 298 298 298 299 296 294 291 292 292 291 292 291 292 293 293 293

GFSNE_sfc_thetae_003.txt.gz
Theta_e
336 330 329 332 329 326 327 328 322 317 318 324 324 335 338 335 332 332 331 322 322 320 319 319 321 322 322 322 321 319 317 316 313 311 310 310 310 309
333 328 326 324 325 327 327 326 325 322 321 326 328 332 335 334 330 332 330 320 320 318 318 317 318 318 319 319 316 315 315 313 312 310 309 308 308 307
329 326 325 324 323 323 324 326 326 326 322 325 328 332 334 334 328 332 327 325 319 317 317 316 315 314 316 316 314 313 313 312 310 309 307 307 305 305
327 327 325 326 324 324 324 330 333 330 325 324 327 327 328 334 329 334 329 325 325 317 316 314 313 312 312 312 311 310 310 309 309 308 307 306 304 304
330 327 329 326 325 326 328 327 332 332 330 324 323 327 326 329 330 333 332 335 327 316 313 313 312 312 311 311 309 308 307 306 305 305 306 306 305 304
331 333 333 330 332 334 333 327 332 331 332 325 323 323 325 330 329 325 323 325 323 317 314 312 309 310 310 309 310 309 306 303 302 302 302 303 303 303
335 333 336 329 321 324 328 333 334 329 324 323 320 321 321 323 323 325 324 326 327 324 318 314 312 310 310 308 307 308 306 303 301 301 300 300 300 300
329 329 327 322 315 310 312 312 325 336 332 323 321 322 330 328 326 323 323 322 318 329 323 321 321 316 315 314 308 304 304 302 301 300 300 299 299 298
333 331 324 321 322 326 311 309 310 310 315 334 332 330 332 334 335 333 330 327 323 327 326 320 324 320 320 315 306 302 301 301 300 299 299 299 298 297
332 331 331 329 325 324 324 324 325 326 328 327 333 335 336 338 338 335 336 333 329 328 330 317 323 320 323 321 305 302 300 299 298 298 298 298 297 296
326 327 328 327 305 305 324 324 324 323 300 302 301 298 297 297 305 324 321 320 319 320 328 323 322 320 319 318 319 301 299 298 298 298 298 297 296 295
322 321 303 315 299 300 326 327 324 325 319 315 319 314 303 312 299 312 317 312 314 314 324 318 317 317 312 317 317 309 302 299 298 297 297 297 296 295
313 313 313 297 296 295 295 326 318 316 316 320 320 320 322 323 319 319 320 313 309 311 315 310 308 308 306 303 303 305 301 303 299 297 296 296 295 294
317 315 311 295 295 295 299 297 297 300 313 315 317 317 318 318 321 321 324 321 319 316 312 310 307 304 302 303 302 304 306 309 303 299 301 299 294 294
319 302 294 292 293 294 293 294 292 311 313 314 316 320 321 322 324 323 325 321 313 311 312 316 309 311 307 305 304 305 302 305 306 305 305 304 303 298
306 312 309 305 302 305 307 301 308 312 314 317 319 321 322 320 316 311 311 309 308 310 315 316 316 313 307 307 307 305 304 302 305 304 303 303 303 303
316 319 317 316 314 315 316 317 319 319 319 323 321 318 312 309 308 309 307 307 306 308 308 311 316 317 314 313 306 306 306 306 306 304 303 300 302 302
312 318 319 320 319 319 319 320 322 317 320 318 313 307 305 303 302 303 303 304 305 306 306 307 308 306 306 307 306 304 304 303 305 304 302 300 300 304
315 317 319 321 320 320 323 324 314 312 310 305 304 304 303 304 303 303 305 304 304 304 305 306 306 303 298 296 302 300 303 303 302 303 304 301 297 297
316 318 320 320 321 323 321 312 309 306 306 305 305 304 304 304 304 303 302 302 301 302 302 304 304 302 299 299 299 304 293 302 301 300 300 302 300 294
317 320 322 324 320 313 311 309 306 306 306 305 307 306 304 303 302 302 301 293 295 301 299 301 303 291 305 304 298 299 301 296 297 295 297 294 291 291
321 323 320 317 313 310 309 309 306 305 306 304 303 302 303 303 302 302 301 300 299 299 298 300 301 301 299 297 294 293 296 298 296 295 295 293 290 287
321 315 311 308 311 309 308 305 304 303 302 302 302 302 303 301 302 301 301 300 299 298 297 296 297 296 293 292 289 290 290 291 292 291 292 294 293 293

GFSNE_sfc_thetae_006.txt.gz
Theta_e
331 329 328 328 327 326 325 324 320 315 316 322 324 330 331 333 330 328 326 325 324 321 320 321 321 322 323 322 322 322 321 319 319 318 316 314 313 313
329 328 327 327 326 327 326 325 324 321 316 323 324 329 332 333 330 329 328 324 322 319 319 318 318 319 319 319 319 319 318 316 315 315 314 314 312 312
328 324 325 326 326 326 327 326 325 324 320 324 326 330 329 329 325 329 327 320 317 318 318 316 315 316 316 316 316 316 315 314 313 313 313 312 312 310
326 324 323 325 324 324 325 324 324 325 323 320 323 326 325 327 323 325 324 321 316 316 316 314 313 313 313 313 312 312 311 311 311 311 311 310 310 308
326 324 323 324 323 324 323 324 326 329 324 322 321 323 322 322 320 324 326 326 323 320 314 314 313 312 311 310 311 310 308 307 306 307 308 308 308 308
327 326 325 325 324 325 325 324 326 326 323 322 321 320 320 324 322 322 320 322 319 316 315 312 311 311 311 310 310 311 307 305 303 303 303 303 303 304
328 328 326 325 323 325 327 325 326 325 323 319 317 318 319 319 319 321 319 319 320 321 311 307 306 304 305 308 310 312 308 305 303 302 301 300 299 300
327 326 323 317 315 313 316 317 323 321 319 318 318 316 317 320 320 319 319 317 315 322 317 313 307 305 306 306 306 304 304 304 303 302 301 300 299 298
326 323 322 322 321 318 309 310 310 310 317 328 321 322 323 323 323 321 319 319 318 320 316 313 318 315 315 313 307 304 302 302 302 301 300 299 299 297
328 325 321 325 322 324 324 323 323 323 324 326 326 326 322 320 326 326 325 324 324 323 322 314 317 316 317 318 309 304 302 300 300 300 299 298 297 296
326 326 328 322 305 305 322 321 321 316 303 302 300 298 297 298 302 317 317 315 313 314 318 317 316 314 316 315 315 305 302 299 299 299 299 298 297 296
322 313 305 316 300 302 322 322 319 319 312 308 311 306 301 306 300 309 310 306 305 304 309 304 303 302 301 307 305 304 301 300 298 298 298 298 296 293
316 316 308 299 297 297 303 319 311 309 311 316 316 319 320 319 313 311 313 309 306 305 308 307 305 304 302 300 300 303 300 300 298 297 297 297 296 295
313 313 306 295 296 296 301 297 298 306 312 313 314 315 317 316 314 317 318 316 314 311 311 309 305 305 302 300 300 302 303 302 301 296 295 296 296 295
312 307 295 295 296 295 294 297 297 309 311 311 313 318 317 315 312 313 312 309 309 310 311 309 308 306 305 301 300 301 301 300 301 299 298 297 299 294
301 300 298 299 300 304 300 296 303 309 311 314 315 312 311 309 307 306 305 305 303 304 308 311 309 309 305 304 302 302 301 298 301 302 301 299 299 301
318 313 313 312 309 310 312 314 314 312 312 316 311 308 305 304 304 305 303 302 301 302 304 304 304 304 305 303 298 298 297 297 299 300 299 297 298 299
311 316 315 315 314 314 315 315 319 315 313 308 305 303 302 302 300 302 303 302 301 299 299 299 300 299 299 300 303 299 297 297 298 299 298 296 296 297
312 313 318 318 319 319 319 316 308 307 306 304 304 302 301 301 301 301 301 299 299 298 299 300 299 296 293 292 298 298 296 296 295 294 295 294 293 295
313 315 316 319 320 313 310 306 305 305 304 303 302 302 303 303 300 299 299 298 298 298 297 298 296 294 292 291 293 295 293 294 292 290 290 291 293 294
310 313 318 317 311 310 306 306 305 304 304 302 302 302 301 300 299 299 298 292 293 296 294 294 295 289 295 294 288 289 291 294 294 291 291 290 289 289
313 317 315 311 308 306 306 305 304 304 303 302 301 301 302 301 299 299 298 297 296 295 294 294 295 293 290 287 287 288 288 291 294 295 295 293 288 286
321 316 310 309 309 308 304 304 302 299 299 299 301 302 301 299 299 299 297 296 295 294 294 291 291 290 288 287 286 288 288 288 290 290 292 294 294 294

GFSNE_sfc_thetae_009.txt.gz
Theta_e
324 324 325 325 325 324 325 324 321 316 316 322 324 329 330 329 329 325 323 324 324 321 320 321 322 322 323 322 323 323 323 323 323 323 321 319 317 316
325 326 325 325 324 326 325 325 323 320 316 322 323 328 330 330 330 325 324 323 322 319 319 318 318 318 318 319 319 320 321 320 319 318 318 318 317 316
325 324 323 326 325 325 326 326 324 323 319 321 325 327 328 327 326 326 326 322 320 318 319 317 315 315 315 315 316 317 318 317 316 316 315 315 315 314
323 323 324 325 325 325 325 324 324 324 322 319 323 325 324 324 323 323 323 323 318 318 317 315 313 312 312 312 312 313 312 312 312 313 313 313 313 312
322 323 324 324 324 324 324 324 324 326 323 321 320 321 320 320 318 319 320 316 318 318 314 313 312 311 311 311 310 310 309 308 307 308 309 310 310 311
323 323 324 324 323 324 324 324 324 322 321 320 318 317 316 316 313 314 316 318 316 316 315 311 311 312 311 310 310 310 308 306 304 304 304 304 304 305
325 325 325 325 323 323 325 323 322 322 319 318 315 313 313 314 311 314 315 315 315 311 307 307 306 306 307 310 311 312 309 306 305 304 303 302 300 301
324 324 324 322 319 317 317 317 320 320 315 314 313 312 313 314 314 316 314 312 311 317 311 307 305 303 305 303 306 305 304 305 305 304 303 302 300 300
322 322 324 325 319 320 310 309 311 311 316 315 313 313 312 315 315 313 312 313 312 316 313 310 309 305 306 308 304 303 302 302 302 303 303 302 300 299
321 320 319 317 317 314 315 316 317 318 317 323 318 316 316 317 318 319 316 315 314 316 315 311 311 311 313 313 306 304 302 301 301 300 300 300 299 297
320 316 319 316 307 308 317 315 314 308 302 301 301 298 297 302 309 313 310 306 303 304 304 304 301 300 302 304 304 303 301 300 299 299 299 299 298 297
309 312 309 308 301 307 314 313 311 310 307 305 305 300 298 300 302 304 306 300 299 298 305 301 300 300 300 304 305 304 304 301 299 298 298 298 298 294
310 306 307 298 300 303 309 314 311 309 307 308 310 310 312 311 306 307 305 303 302 301 306 302 300 303 302 300 300 301 301 299 299 298 297 297 297 296
309 306 300 295 297 297 298 295 299 303 305 305 307 309 308 309 310 308 305 305 306 305 306 306 304 303 301 297 296 298 299 300 298 297 297 297 296 296
307 304 295 294 296 295 294 297 300 302 303 306 307 305 304 303 303 304 304 306 304 306 307 307 305 303 300 297 297 297 297 299 298 297 296 296 295 291
299 297 296 296 296 296 292 292 297 302 305 307 303 303 302 301 300 303 299 300 301 302 304 302 300 301 298 297 295 293 295 293 295 295 298 297 297 297
299 297 295 291 293 298 303 299 301 304 306 302 300 299 299 299 300 301 301 300 297 295 294 296 300 298 297 295 293 293 293 292 294 295 295 293 294 294
305 304 303 302 299 301 303 306 308 306 301 302 299 298 299 298 298 299 298 295 293 293 294 294 293 292 293 295 300 293 293 292 293 293 292 289 289 291
305 307 307 307 307 307 309 305 301 300 301 300 299 302 300 300 299 297 296 295 295 293 293 293 290 289 287 286 291 295 290 289 290 289 287 290 289 289
303 304 306 309 311 306 304 302 301 300 300 302 301 301 301 298 296 295 295 294 293 293 291 291 290 289 287 286 286 288 291 288 288 288 288 289 289 292
304 305 307 309 305 303 302 301 301 301 300 301 298 299 299 297 296 295 293 289 290 291 290 289 291 287 290 289 284 284 287 291 292 289 289 290 288 289
306 306 306 304 303 303 302 300 298 298 299 299 299 299 298 297 294 293 293 292 291 291 290 290 291 290 287 284 283 284 285 286 291 293 294 293 290 286
308 307 304 303 304 302 300 300 300 299 299 299 299 298 296 294 294 293 293 293 291 290 289 288 288 287 285 283 282 283 283 285 286 286 288 292 293 293

GFSNE_sfc_thetae_012.txt.gz
Theta_e
323 322 321 322 324 325 325 323 319 315 317 322 323 329 331 331 330 327 325 324 323 321 319 320 321 322 322 323 324 323 324 323 324 325 325 324 320 319
326 324 324 323 323 324 323 323 323 320 316 323 325 328 330 329 330 325 324 324 322 319 319 319 318 318 319 319 319 320 321 321 321 321 321 321 320 319
325 324 323 323 323 324 324 325 323 323 319 323 326 328 328 325 326 324 324 322 320 318 319 318 316 315 316 316 316 317 318 318 318 318 318 317 317 317
323 324 324 325 323 324 325 324 323 324 322 320 324 325 325 325 324 322 324 323 319 319 317 316 314 313 312 312 312 312 313 313 314 315 315 315 315 315
323 324 324 324 323 324 324 324 324 325 323 322 321 322 322 322 319 319 318 316 318 320 315 315 313 313 312 311 310 310 309 308 308 308 310 312 312 313
323 325 325 325 323 323 323 323 324 323 322 321 320 318 317 316 316 315 314 316 315 316 315 313 312 312 312 310 311 311 308 306 305 305 305 305 305 307
324 325 325 324 321 322 325 323 323 321 321 318 315 314 313 312 309 311 312 313 314 314 309 308 307 306 307 309 312 312 309 306 305 304 304 303 302 302
323 324 323 320 318 315 317 317 320 319 316 315 312 313 311 311 311 310 311 311 310 313 309 311 307 307 306 305 306 304 304 304 303 304 303 302 302 301
323 324 325 326 321 324 313 312 313 311 314 316 313 312 312 313 313 311 311 311 310 313 312 310 310 309 308 309 305 304 302 301 301 301 301 301 300 299
323 323 324 323 323 319 316 315 314 315 316 317 314 314 314 315 316 315 313 311 311 307 309 307 304 302 307 305 304 304 303 302 301 300 300 299 298 297
321 320 320 318 308 304 315 312 307 304 303 303 306 305 303 303 310 314 309 307 302 301 303 301 300 300 300 302 303 303 301 300 299 299 299 299 298 297
314 316 308 312 299 301 313 312 309 305 302 301 299 297 299 300 302 305 304 299 297 297 303 300 299 299 298 301 302 303 301 301 300 299 299 299 298 295
311 311 306 297 300 300 304 310 308 307 302 306 306 307 308 306 305 305 303 303 301 300 304 300 299 302 301 299 298 299 298 298 298 298 298 298 298 297
309 309 302 297 297 298 302 296 297 302 305 307 307 305 307 305 303 302 303 304 304 302 305 306 303 300 296 293 294 297 297 297 296 295 296 297 298 297
308 303 295 294 294 294 294 295 298 303 308 305 303 302 301 302 301 301 301 303 304 303 304 302 299 296 295 293 292 293 293 294 295 293 294 294 294 295
300 296 296 295 295 294 293 297 301 305 307 304 300 300 299 298 298 299 298 300 299 297 297 297 295 293 291 291 290 289 290 289 292 291 292 291 291 292
295 293 291 291 293 294 293 295 301 307 303 299 298 297 297 297 297 298 297 297 295 291 291 292 293 293 292 291 289 288 288 288 289 289 290 288 290 290
296 294 292 291 292 296 300 301 303 301 299 299 297 296 297 297 297 296 297 293 291 291 290 289 289 289 288 290 293 285 285 286 288 289 288 287 288 291
299 298 297 296 295 298 301 303 301 301 299 299 298 296 297 296 295 295 296 293 291 291 290 289 288 287 282 280 286 293 286 287 287 286 286 286 287 289
303 304 304 303 303 303 302 301 301 298 297 297 297 297 295 297 296 295 293 290 290 289 288 288 287 286 283 282 284 286 289 286 286 285 286 287 290 292
305 304 305 307 306 305 302 302 300 300 299 298 297 297 299 297 294 294 291 288 288 289 287 287 288 286 287 286 282 282 285 290 290 287 286 286 286 287
307 307 305 304 303 302 301 300 299 298 298 298 298 299 298 295 295 293 291 290 289 288 288 288 288 287 284 282 277 279 280 282 287 290 292 290 285 282
303 306 306 303 303 302 301 301 300 299 298 298 299 298 297 295 293 292 291 291 288 288 288 285 285 284 283 282 277 275 278 279 281 280 281 288 289 289

GFSNE_sfc_thetae_015.txt.gz
Theta_e
318 320 322 322 322 324 325 323 318 315 316 322 324 329 329 331 331 328 327 324 324 320 320 320 321 322 323 323 323 324 324 324 324 325 327 326 324 322
321 323 324 324 323 324 324 322 322 320 316 322 324 328 329 330 331 327 326 324 322 322 319 318 318 318 319 319 320 320 321 321 321 321 323 324 324 323
323 323 322 324 322 323 323 324 323 323 319 323 326 328 327 328 327 324 324 323 323 319 319 318 316 316 316 316 316 317 318 318 319 319 320 320 320 320
323 323 323 324 323 324 324 323 324 324 322 320 324 325 325 325 323 322 325 326 320 319 317 316 314 313 313 312 312 312 312 312 314 315 316 317 317 318
324 323 323 324 323 324 324 324 324 325 324 323 321 322 324 323 321 322 321 318 319 321 316 315 314 314 313 311 310 310 308 307 307 308 310 311 313 314
324 324 325 324 323 324 323 323 323 323 323 322 321 317 320 318 318 316 314 314 314 316 316 313 313 313 312 311 311 311 308 306 304 304 305 304 305 306
324 325 325 322 321 321 323 322 323 322 321 319 316 316 315 314 313 312 312 311 313 314 311 310 309 308 307 308 311 311 308 306 304 304 303 302 300 301
323 323 322 319 317 313 315 315 320 321 318 317 314 314 310 312 309 309 310 309 308 311 310 311 307 308 307 306 306 304 303 303 302 302 302 301 300 300
323 323 325 323 322 323 312 313 314 310 314 316 314 314 312 312 312 309 309 309 309 309 310 309 307 305 306 307 303 302 302 301 301 301 301 300 299 298
324 324 323 323 322 322 321 319 316 316 315 317 316 315 314 313 314 314 313 310 308 304 306 305 300 300 302 302 303 302 301 300 300 300 300 299 298 297
323 323 324 321 306 306 318 312 308 307 302 304 300 298 299 305 310 314 310 308 301 300 301 300 299 299 299 300 303 302 300 299 299 298 299 298 297 297
319 317 310 316 300 300 313 308 306 304 304 302 300 301 302 300 303 308 306 299 297 298 302 300 299 298 298 300 299 298 297 299 298 297 297 297 296 296
315 313 311 302 298 298 304 309 307 303 301 306 306 304 304 304 303 302 302 303 300 299 302 300 298 298 296 295 295 296 295 294 293 293 295 295 295 296
313 311 306 296 296 297 303 300 296 302 306 305 306 303 303 300 299 301 302 302 302 300 301 301 298 294 292 290 291 293 292 291 291 290 291 293 294 293
310 306 295 294 294 297 296 295 298 306 305 304 303 300 300 299 299 300 300 298 297 298 298 296 295 292 292 290 288 288 288 288 289 288 289 290 289 289
299 297 296 295 295 297 297 299 304 306 306 304 300 298 298 297 297 297 297 295 294 292 293 294 291 290 288 288 287 284 285 283 287 286 287 288 289 289
295 294 293 294 292 292 293 299 303 303 302 298 297 296 296 296 296 296 294 293 291 288 288 289 290 289 290 288 284 283 283 283 284 286 287 286 287 289
295 293 292 293 294 293 293 298 302 301 299 298 296 295 295 296 295 293 293 291 291 290 287 287 286 284 284 285 290 283 283 282 285 287 285 284 286 288
297 294 295 293 295 296 298 300 301 299 297 298 296 295 295 295 295 293 293 294 290 288 287 286 285 283 280 279 284 291 284 284 285 284 283 286 285 287
297 297 295 294 293 296 300 301 298 296 296 295 295 295 295 295 294 294 293 291 290 288 287 286 285 284 281 280 282 283 288 283 283 283 283 284 285 289
299 300 299 298 297 297 300 301 300 299 298 296 296 295 295 295 294 294 293 288 287 288 286 285 286 284 285 284 279 279 281 288 287 282 283 281 280 279
303 304 303 303 303 302 301 302 299 296 297 298 296 296 296 296 295 293 292 291 290 289 287 286 286 285 283 280 275 278 278 279 284 287 289 286 275 275
303 306 304 305 304 303 302 301 300 299 299 298 297 297 296 295 293 293 292 291 289 288 287 284 283 282 281 281 275 273 277 277 277 277 279 287 287 287

GFSNE_sfc_thetae_021.txt.gz
Theta_e
326 325 327 332 333 336 336 332 326 317 319 323 324 328 329 330 331 331 330 325 324 321 321 322 323 324 324 325 325 325 326 325 326 325 325 325 325 325
329 330 330 331 331 333 333 330 329 323 318 324 325 326 328 329 331 329 329 326 321 320 320 320 319 320 321 321 322 322 323 323 322 322 322 323 323 322
329 328 328 330 330 331 332 331 328 325 320 323 326 327 327 327 328 327 328 326 324 319 320 318 317 317 318 318 318 319 319 318 317 317 317 316 317 317
326 327 327 329 329 326 327 330 328 329 324 320 324 325 325 327 326 325 326 327 327 320 318 317 316 316 316 315 314 312 311 311 310 311 311 312 311 311
327 327 328 328 327 325 326 329 329 328 326 323 322 325 324 325 323 324 325 324 323 321 316 316 316 315 314 312 311 310 307 306 305 306 306 306 307 308
329 331 331 328 330 330 327 328 327 325 325 322 322 321 321 322 323 320 319 324 322 324 316 315 315 312 311 311 309 307 304 302 302 302 302 301 302 303
328 328 330 328 322 324 328 328 326 324 323 322 320 319 319 320 319 321 321 322 325 327 323 322 320 315 313 309 308 306 303 302 301 300 299 299 299 299
326 327 325 320 316 312 313 316 323 323 321 321 320 318 320 320 319 321 322 321 319 327 318 314 315 312 311 309 303 301 300 300 299 299 298 298 298 297
327 327 324 325 326 325 311 312 312 310 315 324 320 321 320 322 326 324 325 324 322 324 317 310 313 310 310 305 300 299 298 298 298 298 297 297 297 296
329 328 325 330 324 327 324 324 327 323 323 324 324 325 330 331 330 328 327 321 321 322 322 311 313 309 308 305 300 298 296 296 296 296 296 296 295 296
328 329 329 330 304 308 322 320 320 318 305 301 303 304 304 307 317 324 321 321 317 316 319 314 314 311 310 307 303 297 296 295 295 295 295 295 294 296
327 327 309 317 300 308 328 327 324 322 321 322 322 314 317 312 311 331 326 322 318 313 316 313 312 312 308 309 305 305 303 296 295 294 295 295 293 300
325 324 323 300 300 303 308 329 323 321 314 323 322 322 323 322 322 323 327 321 316 316 314 316 312 311 311 308 308 302 302 300 301 300 295 294 294 294
326 328 323 299 298 300 308 295 299 309 321 318 317 316 316 315 315 315 317 318 320 318 316 318 311 307 304 301 302 301 302 301 300 299 299 297 295 294
329 316 300 297 296 303 295 296 302 322 321 318 316 315 315 314 312 311 310 310 308 307 308 310 306 305 303 301 298 298 299 301 299 298 298 297 297 297
306 313 306 306 301 311 309 306 320 321 320 319 317 315 313 312 310 310 308 306 303 301 304 306 306 303 298 298 298 298 298 297 298 297 297 297 297 297
315 317 319 320 321 321 322 320 320 318 319 319 316 312 311 311 309 309 307 307 304 300 299 300 303 303 301 300 297 297 297 297 296 295 295 295 296 296
318 319 318 318 318 319 319 318 319 314 318 317 315 313 311 310 309 309 309 307 303 300 299 300 299 298 297 296 294 295 297 295 295 295 295 293 293 295
321 321 320 319 318 318 319 320 319 319 320 318 316 314 313 311 307 308 307 305 301 299 298 299 298 297 294 294 295 289 293 294 294 294 294 293 292 293
320 320 320 321 320 319 318 318 319 319 317 317 316 314 313 311 309 308 306 304 301 299 297 297 295 297 296 296 294 293 286 292 291 291 291 292 293 288
313 315 318 319 319 319 319 317 318 318 316 316 315 314 312 311 310 309 306 294 295 296 294 292 292 287 295 294 291 290 290 288 288 288 289 288 289 290
317 315 314 315 317 317 317 317 315 314 315 315 314 313 313 311 310 307 304 297 294 294 293 292 293 293 291 289 289 287 289 290 289 287 287 285 287 286
321 319 317 315 314 314 314 314 315 314 314 313 312 312 311 309 308 307 301 298 296 294 292 291 291 292 292 291 289 287 286 287 289 290 291 286 285 285

GFSNE_sfc_thetae_024.txt.gz
Theta_e
335 335 335 333 341 339 338 336 326 318 320 325 326 328 329 329 329 329 328 325 324 322 321 322 323 325 325 326 327 327 327 324 323 323 324 324 324 325
327 329 333 337 339 334 337 337 335 327 320 325 325 327 328 328 330 329 327 326 322 321 321 320 320 321 321 321 323 325 324 322 322 321 321 320 320 320
333 332 332 334 333 332 336 332 328 327 320 323 325 326 324 326 327 328 328 327 326 320 321 319 318 319 320 321 322 322 319 317 316 315 315 315 315 315
330 331 332 332 332 332 333 332 330 327 323 319 323 324 325 326 326 325 325 326 326 320 318 317 316 317 318 318 315 313 311 311 312 312 312 312 312 311
330 329 331 332 327 327 329 333 331 327 327 323 321 324 324 325 324 325 324 324 324 321 316 315 315 314 313 311 309 307 305 305 305 306 307 307 307 307
331 332 331 330 326 327 329 330 330 328 325 324 321 321 322 323 323 320 319 321 321 321 315 315 313 311 309 308 307 305 303 301 301 301 301 301 301 301
334 332 332 328 323 325 330 332 328 324 324 321 320 320 319 319 318 322 321 322 324 323 317 316 316 314 313 308 306 303 301 300 300 300 299 298 298 299
332 332 331 325 320 313 315 316 323 324 322 320 319 318 320 320 321 319 323 322 319 327 323 318 319 316 313 308 301 300 300 299 299 299 299 298 297 297
332 328 327 330 327 324 312 312 311 311 318 324 321 321 319 321 320 323 325 325 323 323 320 314 316 310 307 302 299 298 298 298 298 298 297 297 297 296
331 334 332 331 325 328 327 323 320 321 324 326 325 325 326 328 329 331 331 330 327 321 324 314 316 311 309 304 297 297 296 296 296 296 296 296 295 296
334 332 332 331 305 309 325 320 318 313 306 307 309 311 307 311 321 329 324 323 320 322 324 318 316 312 311 306 300 296 295 295 295 295 295 295 295 295
331 331 308 318 302 307 326 327 320 318 319 323 321 312 318 317 312 335 328 323 323 320 323 318 316 314 310 312 309 303 301 295 295 295 295 295 294 303
327 327 319 299 301 306 312 331 323 324 319 329 328 328 327 327 330 334 334 329 321 322 320 322 318 317 315 311 307 306 307 304 306 301 294 295 294 294
326 327 320 298 300 303 313 300 302 313 326 325 325 325 325 325 326 327 328 326 326 326 322 324 318 316 310 308 305 304 305 306 307 305 305 298 295 295
332 317 299 297 299 301 297 300 300 327 326 325 324 324 324 323 323 322 322 319 318 317 317 319 316 313 308 305 302 302 303 304 306 304 303 303 302 301
310 322 316 310 299 310 311 312 329 329 327 324 321 321 320 319 318 319 316 315 311 308 311 311 311 310 305 305 304 302 304 303 305 304 302 303 304 302
325 327 327 329 328 327 324 325 326 325 324 324 321 319 319 318 317 318 316 313 310 305 303 306 309 309 306 305 301 302 302 303 303 302 300 299 302 300
325 327 326 326 325 325 325 325 326 320 324 324 322 319 318 317 316 316 316 315 312 307 304 303 302 300 298 297 294 302 302 302 302 302 300 295 295 298
327 324 321 322 323 324 324 324 324 325 326 323 321 320 319 318 314 315 315 315 311 307 305 304 303 301 298 296 297 287 298 299 297 297 296 295 294 297
322 321 321 321 319 319 321 322 323 324 324 323 322 321 320 318 315 315 314 313 310 305 302 302 301 300 297 298 297 295 286 295 293 292 293 295 296 291
322 322 323 323 323 322 321 321 322 322 323 323 322 321 321 319 316 316 314 300 302 305 300 299 298 288 298 297 294 294 294 287 289 290 291 290 292 294
319 318 320 322 323 323 323 323 322 322 323 323 322 322 321 320 317 316 315 310 307 304 299 294 296 295 295 295 295 293 294 295 290 288 287 284 289 289
323 322 320 318 319 321 322 321 321 321 322 322 322 322 321 319 318 317 315 311 307 301 296 294 294 294 293 293 292 295 290 291 293 292 294 288 287 287

GFSNE_sfc_thetae_027.txt.gz
Theta_e
335 334 332 335 334 343 339 336 324 319 320 325 324 328 328 329 329 328 327 325 325 321 321 322 324 325 326 326 327 327 327 326 326 325 324 324 324 323
332 332 331 336 332 340 338 337 336 329 320 327 325 325 326 326 328 327 327 326 322 321 321 321 321 321 321 322 323 324 324 323 322 321 320 320 319 319
331 329 333 330 335 332 334 332 330 331 322 323 325 326 325 324 325 326 327 326 323 320 321 319 318 319 320 321 322 321 319 318 317 317 316 316 316 315
332 330 331 333 334 335 332 331 328 329 323 319 321 322 323 325 324 324 325 326 324 320 318 317 317 317 317 314 313 312 312 313 313 313 314 313 312 312
332 332 332 333 331 330 331 331 329 326 325 320 320 323 323 324 322 322 322 322 322 319 315 314 314 313 311 310 308 307 306 305 305 306 308 307 306 305
332 334 331 326 326 329 328 328 327 325 323 321 320 320 321 322 321 318 316 318 319 321 315 314 312 310 308 307 306 305 302 301 301 301 301 301 301 301
333 332 333 326 323 324 330 329 327 324 322 320 319 319 319 318 316 315 315 319 320 317 313 312 313 312 310 307 304 302 301 300 300 300 299 298 298 299
332 332 332 323 318 313 315 317 324 323 321 320 319 317 318 319 319 317 318 317 315 320 319 315 316 314 312 304 301 300 300 300 299 299 299 298 297 297
333 332 331 329 327 328 313 312 312 312 317 323 320 320 318 320 321 322 323 323 321 325 320 316 316 309 305 300 299 299 298 298 298 297 297 297 297 296
333 333 333 330 327 329 325 323 323 324 324 325 323 322 322 321 325 326 328 328 327 324 324 312 314 308 307 301 298 297 296 296 296 296 296 295 296 296
332 331 332 330 306 308 322 318 318 319 311 308 309 307 306 308 318 329 327 322 318 319 325 318 315 310 307 302 298 297 296 295 295 295 295 296 295 295
331 327 309 316 305 308 322 321 319 320 322 322 321 313 314 317 310 334 330 322 321 318 326 319 316 313 309 308 303 298 298 296 296 295 296 296 295 304
327 327 323 302 305 311 314 323 319 323 318 327 327 327 328 330 330 333 333 328 326 324 326 327 319 316 317 311 310 308 309 302 303 298 296 296 296 295
327 326 318 299 301 305 314 303 304 317 331 329 327 326 325 326 330 333 331 331 331 331 327 328 321 320 317 312 307 307 307 307 307 306 305 298 296 296
330 313 299 298 299 306 302 304 305 330 329 326 323 323 326 330 331 328 326 325 327 325 324 325 323 324 317 309 308 305 305 306 306 304 304 304 303 302
309 315 315 309 304 312 315 315 327 328 327 326 327 328 327 324 323 324 319 317 315 313 316 316 317 316 311 310 307 304 304 302 305 304 303 304 304 303
326 329 328 328 324 323 324 326 328 328 327 327 325 323 321 321 320 321 319 317 314 310 307 308 312 314 308 308 304 305 303 303 304 302 301 300 302 301
326 327 326 326 325 324 324 325 326 322 326 325 323 321 319 319 319 319 319 317 314 310 307 306 306 304 302 300 296 303 302 301 301 301 300 296 296 300
327 326 327 326 326 324 324 324 324 325 329 325 324 321 320 319 316 317 317 316 316 312 308 307 304 300 296 296 295 289 301 300 299 299 297 296 295 298
328 326 325 326 326 325 324 324 325 327 326 325 324 322 322 319 318 316 316 316 315 313 309 306 304 303 303 302 298 292 287 297 294 294 294 296 297 294
324 322 324 323 322 322 325 325 327 326 327 327 325 324 324 321 319 317 317 302 306 313 308 305 305 289 303 302 295 293 292 288 291 293 293 290 292 294
321 320 323 324 325 323 322 322 322 324 326 327 326 325 325 323 321 320 318 316 314 313 309 305 302 301 298 297 298 294 295 293 290 290 288 289 291 288
322 322 322 322 324 326 325 324 323 323 325 325 325 325 325 323 324 323 321 318 316 312 307 298 298 297 296 295 296 294 293 293 294 294 293 290 290 290

GFSNE_sfc_thetae_030.txt.gz
Theta_e
330 329 329 331 329 325 322 323 320 316 317 322 322 328 330 329 329 327 326 325 324 322 321 322 324 325 326 326 326 326 326 325 326 326 326 325 324 323
328 329 329 330 329 328 328 327 326 321 317 324 322 325 327 326 325 323 326 325 323 322 321 321 321 321 321 322 322 323 322 321 321 322 322 321 320 318
328 326 327 327 327 329 328 327 325 324 319 321 323 324 324 323 324 326 327 325 323 321 321 319 318 318 319 320 320 319 319 318 317 318 318 317 317 315
327 326 326 329 327 328 327 326 325 325 321 317 320 321 322 324 324 322 323 326 324 320 318 317 316 315 314 313 312 313 312 313 313 314 314 314 313 311
328 327 326 327 327 326 327 326 325 324 322 320 318 321 322 323 321 322 321 321 321 318 315 314 313 312 310 309 308 307 306 306 306 307 308 308 306 305
329 330 326 324 325 326 326 325 324 322 321 319 319 319 319 320 319 317 316 319 317 317 314 312 310 309 308 307 306 305 303 301 301 301 301 301 302 302
329 330 326 323 320 324 326 325 323 321 320 319 318 317 316 316 313 314 314 314 314 311 308 307 306 306 305 306 305 303 301 300 300 299 299 298 298 299
329 326 324 320 316 314 317 318 321 321 319 319 318 316 315 313 313 314 314 312 308 313 310 309 308 306 302 300 301 300 300 300 299 299 298 297 297 297
329 329 328 325 323 321 311 312 312 311 316 321 318 317 314 314 316 316 315 314 311 312 311 308 306 300 299 298 299 299 298 298 298 298 297 297 296 296
330 330 328 328 323 324 323 322 322 322 322 323 322 320 319 319 320 317 320 320 317 318 315 306 305 301 299 296 298 297 296 296 296 296 296 296 296 296
330 330 328 322 306 308 322 320 320 319 310 308 308 306 306 309 318 322 321 317 314 314 315 309 306 302 298 295 295 297 296 295 295 295 295 295 295 295
327 323 310 316 304 307 322 321 318 319 320 319 316 310 310 312 309 323 323 316 314 312 316 312 307 305 300 298 294 293 293 296 295 295 296 296 295 299
324 322 316 302 305 306 312 322 319 322 316 322 322 320 319 321 324 326 327 321 317 317 320 316 309 308 310 301 297 294 295 296 294 294 296 296 296 295
323 324 311 300 304 307 314 302 304 314 325 324 323 321 321 324 326 326 325 324 326 323 321 321 314 311 310 304 301 302 302 299 299 298 295 296 296 295
327 308 298 300 300 303 302 302 305 325 324 323 322 323 325 325 326 322 321 321 321 321 323 320 318 316 315 309 303 300 300 301 301 299 300 294 294 294
308 312 309 309 310 312 311 311 328 327 325 324 322 321 323 324 322 321 316 315 311 309 311 309 311 311 308 305 303 300 300 298 300 299 297 297 299 297
320 321 322 320 320 320 322 323 324 326 325 323 321 322 321 321 320 320 316 313 309 306 304 306 306 301 297 301 300 300 300 298 299 297 297 296 295 296
323 323 324 321 320 320 320 321 324 320 323 325 324 322 319 319 318 318 316 313 310 307 304 303 303 300 298 295 296 299 298 298 298 297 296 292 290 292
326 325 324 324 322 322 322 322 323 324 327 323 321 319 318 317 311 316 315 314 312 307 304 303 302 299 294 292 290 290 297 297 296 296 293 291 290 292
326 325 325 326 325 322 322 322 323 323 323 324 322 320 319 317 315 314 314 312 311 310 305 303 301 299 295 294 292 289 289 295 293 292 290 291 291 291
324 326 328 327 326 325 324 324 323 324 322 322 322 321 319 317 316 315 314 301 304 311 305 302 302 294 298 297 290 288 289 289 291 291 289 285 286 288
326 326 326 325 323 322 323 324 323 320 322 323 322 322 321 319 317 316 315 313 310 311 306 299 301 298 295 294 292 291 290 290 290 291 290 290 287 282
320 320 319 319 324 323 320 319 319 321 323 323 323 322 322 319 319 317 316 315 313 310 297 296 296 296 294 294 289 290 291 291 291 289 289 291 291 291

GFSNE_sfc_thetae_033.txt.gz
Theta_e
322 322 322 324 322 319 321 323 318 314 316 321 321 330 330 329 329 327 326 324 323 321 321 323 324 325 325 325 326 326 326 327 327 328 327 326 324 323
322 322 322 323 323 324 321 319 320 317 314 322 322 326 328 327 327 325 325 324 322 321 321 320 320 321 321 321 322 322 322 321 321 322 322 322 320 319
324 322 322 322 323 323 324 320 319 318 318 320 323 324 322 323 324 325 326 325 323 321 321 319 318 318 318 318 318 318 318 318 318 318 319 318 318 316
322 323 322 327 324 323 323 322 321 322 319 318 321 320 320 322 324 323 323 325 323 320 318 317 316 315 314 313 313 313 313 313 314 314 314 314 313 310
326 325 324 325 323 323 324 323 323 323 321 320 318 321 322 323 322 322 321 321 321 319 315 314 313 312 311 310 309 309 307 307 307 308 309 309 307 306
327 326 325 324 323 324 323 323 323 321 320 319 319 319 319 320 320 317 316 318 315 314 312 311 310 310 309 308 308 307 304 303 302 302 302 302 302 303
325 325 324 323 323 323 324 323 322 320 319 317 316 316 316 316 314 316 312 312 311 309 306 305 304 304 305 307 307 305 302 300 300 300 300 299 299 299
322 323 323 320 318 315 316 317 320 319 318 317 316 314 314 313 315 314 312 310 306 309 306 304 304 301 300 300 302 301 300 300 299 299 298 298 297 297
322 322 324 322 321 319 311 311 311 311 316 319 316 314 313 314 315 313 312 311 308 308 307 301 300 296 297 299 299 299 299 298 298 298 297 297 296 296
324 323 324 324 321 323 322 321 321 321 321 321 319 317 316 317 316 315 314 311 311 310 308 300 300 296 295 295 298 298 297 296 297 297 297 296 295 295
325 323 324 322 306 308 322 320 319 317 309 307 307 305 304 306 314 320 312 309 308 307 309 302 300 296 294 292 294 297 296 295 295 296 296 296 296 295
321 319 308 315 303 307 322 320 318 318 319 317 314 309 310 308 309 319 315 311 310 306 310 304 300 298 294 294 291 293 291 295 295 295 296 296 295 292
320 317 312 303 302 304 311 321 318 319 314 319 317 316 316 317 318 319 317 315 312 309 313 307 302 301 299 293 291 290 289 289 291 292 295 295 295 295
320 316 309 301 301 303 313 300 302 313 321 320 317 315 312 315 318 321 322 318 317 316 316 310 305 303 302 296 295 291 289 291 290 291 291 293 295 294
320 311 299 300 300 302 301 303 309 323 321 319 317 315 315 319 320 316 316 317 315 320 319 313 310 309 306 301 298 296 296 296 295 294 293 291 290 289
304 305 307 307 307 310 310 313 324 323 320 319 319 318 318 318 314 314 311 310 307 305 305 307 307 311 309 305 298 296 297 296 297 295 295 294 293 292
312 313 313 313 315 317 319 317 321 320 319 319 316 317 318 319 316 313 310 308 305 303 301 299 295 294 293 298 296 296 296 296 297 295 294 293 291 292
317 316 314 315 317 318 318 318 318 318 321 318 316 318 318 318 315 313 310 307 304 302 300 299 296 295 294 292 295 295 295 294 294 295 295 291 289 290
317 317 316 316 316 318 319 319 319 319 322 320 319 318 317 317 311 314 311 308 306 302 299 298 297 294 291 290 289 292 293 294 295 293 292 292 290 291
318 318 317 317 316 317 317 316 317 318 319 319 318 317 316 316 311 312 312 309 306 302 299 298 298 295 294 292 288 287 288 291 291 290 290 291 286 289
318 319 320 321 319 318 319 318 317 317 318 317 316 316 314 312 310 311 311 300 301 305 301 299 300 292 293 290 285 284 285 290 293 292 290 286 285 287
321 320 319 320 321 320 319 319 317 313 317 316 316 317 316 314 313 311 311 310 306 307 304 298 295 295 292 291 286 284 285 286 290 291 291 291 287 284
322 322 321 321 316 319 320 320 319 319 318 319 317 317 317 315 314 312 312 310 307 302 295 293 292 291 290 289 287 288 288 288 289 289 291 292 292 292

GFSNE_sfc_thetae_036.txt.gz
Theta_e
320 319 320 322 323 319 318 318 316 314 314 321 322 327 329 330 330 327 327 324 323 321 321 322 324 325 325 325 325 326 326 327 328 328 329 328 326 324
321 320 320 320 321 318 319 319 320 318 313 321 322 327 326 327 329 326 325 323 321 321 321 321 320 320 321 321 321 322 323 323 323 323 324 323 322 320
322 322 321 321 322 319 318 317 318 319 317 320 323 325 323 323 323 323 322 319 319 320 321 318 317 317 317 317 317 318 319 319 319 319 319 319 319 316
322 320 320 325 321 321 319 317 316 318 320 318 320 321 321 322 320 320 322 324 323 321 318 317 315 314 314 313 313 313 313 314 315 315 315 315 314 311
323 323 323 323 322 323 322 321 321 321 321 319 317 320 320 321 321 321 320 320 321 319 314 314 313 313 312 311 310 309 308 308 308 309 310 310 310 308
325 325 324 323 322 323 323 322 322 321 321 318 318 318 320 320 319 316 315 317 313 313 311 311 311 311 310 309 310 308 306 304 303 303 304 304 304 304
324 324 324 323 321 322 323 322 321 320 319 318 317 317 316 315 314 315 312 311 309 309 306 305 304 304 305 308 310 307 304 302 301 301 301 300 300 300
321 322 322 320 317 315 316 316 320 320 318 317 316 315 316 315 315 313 311 309 305 308 304 301 302 300 299 300 303 302 301 300 300 300 299 298 298 298
320 323 323 321 320 319 310 311 310 311 316 319 316 315 314 315 315 313 313 310 306 305 304 298 298 295 297 299 300 299 299 298 299 298 298 298 297 296
321 324 322 321 320 320 320 319 319 319 319 320 318 318 318 317 317 315 311 307 306 305 304 297 297 295 295 295 299 298 298 297 297 297 297 297 296 295
324 324 323 321 305 307 320 318 317 314 307 305 304 304 303 304 312 312 309 306 303 303 305 299 297 294 292 291 293 298 297 296 296 296 296 296 295 295
320 318 309 315 302 305 320 319 316 315 315 314 313 308 309 309 308 313 311 307 305 303 306 300 297 295 293 293 291 293 292 295 295 295 296 296 296 291
318 317 314 301 301 302 309 319 316 317 311 315 316 316 316 312 315 312 310 311 307 306 308 302 299 297 296 292 289 289 289 287 290 291 295 295 295 293
317 317 309 299 300 301 308 300 303 311 317 315 316 315 313 313 315 315 313 313 312 313 310 306 301 300 298 292 292 289 287 287 288 288 289 292 294 294
318 310 298 298 298 300 300 303 307 319 316 313 313 310 311 314 319 316 314 314 311 313 313 309 305 303 302 299 297 291 289 289 290 289 290 289 290 289
304 307 306 307 307 310 311 314 322 321 317 315 313 312 314 314 313 312 310 309 308 302 302 304 308 306 304 302 299 295 295 295 291 292 293 292 291 291
308 315 315 316 315 317 320 321 320 319 317 316 316 315 315 315 313 310 309 307 306 302 299 295 293 299 298 301 298 296 296 295 295 294 293 292 292 293
312 312 314 316 317 317 319 320 318 316 318 318 315 316 316 316 314 311 308 307 305 303 300 295 293 294 293 291 295 294 294 294 293 293 292 290 288 291
313 312 314 315 316 317 318 319 319 319 318 318 316 316 316 317 309 315 310 307 305 303 301 298 294 294 291 291 290 292 293 292 292 290 289 289 289 291
315 315 314 316 317 317 318 317 316 317 317 317 315 317 317 317 314 316 315 312 308 303 300 297 296 294 297 297 290 288 288 291 291 289 289 287 287 289
314 316 316 315 316 317 317 316 317 316 317 318 317 317 317 316 315 315 314 300 301 304 303 301 301 292 290 290 288 286 287 290 292 290 288 287 286 287
317 317 317 317 316 317 317 317 318 314 315 317 318 318 317 316 315 313 312 309 306 310 308 303 294 292 291 292 290 288 286 285 290 292 292 291 287 283
319 319 319 318 320 317 317 317 316 316 316 316 317 317 317 315 315 313 311 310 310 308 299 294 292 291 291 291 289 287 286 285 286 287 289 291 293 293

GFSNE_sfc_thetae_042.txt.gz
Theta_e
323 322 321 322 322 321 322 321 320 313 316 321 323 329 330 331 331 331 332 326 326 323 322 323 322 323 325 325 325 326 326 326 327 328 328 329 329 326
322 322 321 322 323 323 323 322 322 319 315 322 323 327 328 327 329 330 329 326 322 320 319 318 320 320 321 321 322 323 324 324 324 325 326 326 325 323
323 322 322 322 322 321 321 322 321 322 317 322 324 325 324 323 324 325 325 324 321 320 319 318 317 317 318 318 319 320 321 321 321 321 322 322 320 319
321 322 321 323 322 320 320 321 322 324 322 318 320 320 319 320 321 321 322 324 321 320 318 316 316 315 315 315 315 315 315 315 316 317 318 317 317 316
321 321 322 324 321 320 320 321 323 324 324 320 317 318 317 318 317 317 318 320 320 319 316 316 315 315 313 312 311 311 310 309 310 311 313 314 313 313
323 324 324 324 323 321 321 322 323 322 321 318 316 316 316 317 317 314 313 315 312 313 313 313 313 313 312 311 311 310 307 306 305 306 306 306 306 307
324 324 324 324 321 321 322 323 322 321 318 316 316 315 315 314 313 313 309 310 309 311 307 307 309 310 311 312 313 310 306 304 303 303 303 301 301 301
321 322 322 319 316 313 315 316 320 320 318 317 316 314 314 313 313 312 310 309 305 309 305 301 306 305 307 309 306 304 303 303 303 302 301 300 299 299
323 322 323 321 320 320 311 312 311 311 316 320 316 316 314 314 314 313 313 311 307 306 305 302 303 302 303 303 302 302 301 301 301 300 299 299 298 297
324 323 321 321 320 320 321 320 321 321 321 323 322 319 318 317 317 314 308 306 306 306 309 303 301 300 301 302 300 300 299 298 299 299 298 298 296 296
324 323 322 319 304 306 318 315 316 314 308 308 308 304 302 303 309 313 309 308 306 307 307 305 301 300 299 299 299 299 297 297 297 297 298 297 296 295
320 318 308 312 301 304 317 315 313 313 313 312 310 306 308 306 307 315 313 308 309 308 310 304 300 301 300 299 299 300 300 297 296 296 297 297 296 299
319 316 310 300 299 301 307 316 313 315 311 315 314 313 314 315 314 314 318 314 310 310 309 305 302 301 304 300 299 299 299 297 298 297 295 296 295 297
318 314 305 298 299 300 307 299 301 310 316 315 314 313 313 314 313 315 315 315 316 315 310 310 305 306 305 302 303 298 297 297 296 296 296 296 295 295
318 306 297 297 298 300 298 299 305 317 316 314 314 314 315 317 314 313 314 314 315 312 310 312 310 308 308 308 307 301 298 297 296 294 295 295 296 298
303 306 306 306 305 305 307 312 320 320 318 316 315 315 315 317 314 314 313 313 313 312 311 312 312 311 309 309 309 307 301 304 297 296 295 295 296 297
311 316 316 314 312 314 317 318 317 318 317 316 315 315 317 318 317 316 315 313 314 313 312 308 307 311 311 311 308 309 309 304 304 298 294 294 295 297
316 316 315 315 315 316 316 317 317 313 316 317 317 316 316 318 317 316 315 317 316 315 313 307 305 306 306 308 307 311 310 309 308 301 297 296 297 298
317 316 316 317 317 319 319 318 317 318 318 318 318 318 317 318 313 317 317 316 315 316 315 309 305 307 309 309 308 297 310 309 305 302 301 299 300 301
318 317 317 318 319 319 320 320 319 319 319 318 319 319 318 318 316 317 318 318 317 317 315 311 305 305 308 312 312 309 291 305 303 304 301 298 294 289
316 317 319 319 319 320 320 321 321 319 319 319 319 318 319 319 319 319 319 301 306 317 316 316 315 296 308 303 303 305 298 290 298 303 299 296 293 293
318 318 318 319 320 320 320 320 319 316 318 321 320 320 320 320 319 319 319 318 315 317 318 320 310 306 304 304 308 310 302 295 292 294 295 295 295 293
318 319 318 319 320 319 319 318 318 318 319 321 321 321 321 320 320 321 321 320 320 319 317 317 308 303 305 303 303 309 301 297 295 291 291 292 293 294

GFSNE_sfc_thetae_045.txt.gz
Theta_e
329 332 331 330 330 329 328 333 328 315 318 326 328 333 335 337 335 337 339 325 327 323 323 324 325 325 326 326 326 326 327 327 328 328 328 329 329 328
326 332 332 330 331 331 329 327 333 327 318 326 326 329 332 332 334 335 336 327 324 323 322 321 321 322 322 322 322 323 324 324 324 325 327 327 327 326
326 330 330 331 329 330 326 329 328 330 319 324 326 328 326 326 327 329 328 325 323 321 322 320 318 318 318 319 319 320 322 322 322 323 323 323 322 321
323 323 324 329 331 327 326 330 327 332 326 318 321 321 322 323 323 322 322 323 322 321 319 318 316 315 314 315 315 316 316 317 318 319 319 319 319 318
324 324 324 327 328 324 328 327 329 332 328 320 319 320 320 320 320 320 319 319 320 320 316 316 316 315 315 313 312 312 311 310 311 312 314 315 315 315
325 324 324 327 326 322 326 329 330 330 324 319 317 317 317 318 319 315 314 315 313 316 316 316 315 314 313 312 312 312 308 307 307 307 307 307 308 309
325 326 326 328 323 326 329 329 330 324 319 317 316 316 315 315 312 313 311 311 310 313 310 311 317 315 314 314 315 312 308 306 305 305 304 303 303 303
322 324 324 321 319 314 316 317 327 325 322 320 316 314 316 314 314 312 310 309 305 311 308 305 311 311 313 314 308 305 305 304 304 303 302 301 301 300
324 323 323 321 321 323 312 312 312 311 319 323 319 317 315 316 316 313 313 313 309 309 309 305 312 309 314 311 303 303 302 302 302 301 301 300 299 298
327 324 322 323 321 321 323 324 325 325 325 326 325 323 321 322 322 320 317 310 309 311 318 312 314 312 312 312 301 302 300 300 300 300 300 299 298 297
326 324 323 320 305 306 323 322 322 319 309 307 308 304 302 304 310 315 312 313 309 313 317 315 313 311 312 310 307 300 299 299 299 299 299 298 297 297
322 319 309 314 300 304 321 321 317 315 315 315 313 308 309 307 308 318 315 310 312 313 317 315 312 311 308 309 309 307 305 298 298 298 298 298 297 302
318 317 310 300 300 302 308 321 316 318 312 316 314 313 314 316 316 317 317 315 317 319 318 317 312 310 313 311 310 310 310 307 304 301 296 297 296 298
318 314 307 298 298 300 309 300 301 310 317 314 313 313 315 315 315 318 320 323 325 323 316 317 314 314 315 313 313 311 310 310 308 307 305 300 296 296
317 307 297 296 297 299 298 300 305 316 315 314 313 315 317 320 321 320 320 323 321 318 316 320 320 317 318 319 318 313 311 310 310 308 307 305 304 302
303 305 305 305 305 305 308 312 319 320 318 317 317 318 320 320 319 319 315 315 318 318 318 320 322 321 318 319 320 319 316 316 312 311 309 307 305 304
312 316 315 314 313 315 318 319 320 320 320 320 318 320 319 318 318 320 320 319 317 317 318 319 320 322 321 321 320 321 321 320 319 316 309 309 309 307
316 316 315 315 315 316 317 318 320 317 321 323 323 322 321 321 321 320 320 319 318 319 318 321 320 319 320 321 316 322 324 322 323 321 314 311 313 315
318 316 317 318 317 318 318 321 321 324 326 325 325 325 324 324 320 320 320 319 318 319 323 324 321 320 319 318 324 304 321 323 323 319 317 314 313 316
320 318 318 321 322 319 320 323 325 325 325 325 325 325 324 323 321 321 322 322 322 323 324 325 322 322 320 319 319 323 295 320 321 319 319 317 311 290
320 320 321 322 324 326 325 325 325 326 325 326 326 326 325 323 322 324 324 304 310 324 323 324 326 302 324 322 315 318 322 292 304 317 318 314 311 309
324 324 323 323 323 324 324 325 324 322 323 326 326 326 325 324 322 322 323 323 323 323 324 326 328 323 320 317 317 320 323 323 296 293 294 299 308 304
326 326 326 327 326 325 323 322 322 324 323 326 327 326 326 324 326 326 326 326 325 325 325 324 325 324 319 319 314 319 321 322 318 311 308 295 294 294

GFSNE_sfc_thetae_048.txt.gz
Theta_e
336 336 334 337 332 333 336 335 330 318 320 329 332 338 338 339 338 340 342 326 326 323 323 324 324 326 326 327 327 327 327 328 328 328 328 328 329 329
334 333 334 336 337 336 334 332 333 328 323 332 332 336 338 336 335 339 339 328 323 323 323 322 322 322 322 322 322 323 324 324 325 326 327 328 328 327
332 327 333 335 336 336 338 335 331 331 323 328 330 330 330 330 332 335 336 330 325 322 322 321 318 318 318 319 319 320 322 322 322 324 325 324 323 323
327 326 328 333 332 335 330 327 335 337 327 323 324 322 324 327 327 326 326 327 327 322 320 318 316 316 315 315 316 317 317 318 319 320 320 320 320 321
327 325 326 329 331 331 326 335 335 336 329 323 319 321 321 322 320 321 321 322 322 321 318 316 315 315 314 313 313 313 312 312 312 313 315 317 317 317
326 324 325 326 331 329 334 332 334 332 328 323 319 318 319 320 318 315 315 318 317 319 318 316 315 315 314 313 314 313 310 308 308 309 309 309 310 311
326 325 327 326 324 325 329 334 334 329 324 318 316 316 315 315 313 315 313 313 313 316 315 315 317 321 319 315 318 313 308 308 307 306 306 304 304 305
324 326 328 323 323 316 317 319 328 328 325 320 317 315 315 315 314 312 311 311 307 314 313 313 317 316 318 325 308 307 307 306 305 305 304 303 302 302
325 325 324 327 325 331 314 315 314 312 321 329 320 318 315 318 319 316 316 315 311 309 313 309 313 311 312 312 305 305 304 304 303 303 303 302 301 300
326 326 323 325 325 328 330 330 330 331 331 330 324 323 322 324 324 322 319 315 313 314 316 307 315 315 318 319 304 304 302 301 302 301 301 301 299 298
327 324 324 324 307 307 328 327 328 326 308 307 310 306 306 306 314 320 312 312 311 313 317 314 317 316 318 319 314 302 301 300 300 300 300 300 298 298
324 321 310 316 300 305 328 325 322 319 320 319 315 310 314 309 308 322 322 316 314 313 321 319 318 317 313 318 317 310 310 300 299 299 299 299 298 303
322 317 314 300 299 302 312 327 321 323 317 321 319 317 319 319 321 323 323 319 320 321 322 323 318 318 319 315 316 316 315 313 309 304 297 298 297 299
321 315 309 297 298 300 312 301 302 312 320 318 317 314 317 317 317 318 318 323 329 328 325 326 319 316 317 318 316 318 318 319 317 314 313 303 296 296
320 305 296 296 297 299 299 300 305 321 319 317 316 318 318 320 320 318 322 329 327 327 325 323 322 320 320 321 320 319 317 319 320 318 317 315 312 308
304 310 305 305 304 304 306 312 324 322 319 317 317 319 320 322 321 323 321 325 324 320 320 324 327 325 320 322 324 323 322 321 322 321 320 319 318 315
313 317 316 314 313 314 317 318 320 319 317 320 319 318 320 321 320 323 325 322 319 318 318 322 325 327 326 328 324 325 326 326 327 326 322 319 320 320
317 318 315 315 315 316 317 317 318 316 320 321 322 322 321 322 322 323 324 322 319 321 320 321 321 321 324 327 321 326 328 328 328 329 327 323 320 323
319 319 319 317 317 318 318 319 318 321 325 325 324 324 324 323 320 323 324 323 321 322 323 324 324 323 321 319 325 312 327 326 326 327 327 325 323 323
319 322 322 322 320 319 321 323 324 325 326 326 325 326 325 323 323 324 322 321 320 320 321 324 326 325 323 322 322 326 298 327 326 325 325 327 326 300
320 320 325 324 325 325 325 326 326 325 325 326 326 327 326 326 326 325 323 305 309 322 322 324 327 303 330 329 323 322 325 299 313 326 326 325 323 323
323 323 324 327 327 328 328 326 326 325 326 327 327 327 328 328 326 325 324 324 323 324 325 327 329 330 328 325 323 322 323 328 305 299 297 303 318 317
325 325 326 328 329 327 327 325 325 326 329 328 329 329 329 327 327 326 326 326 325 325 326 326 327 328 326 325 317 322 324 326 327 325 317 296 295 296

GFSNE_sfc_thetae_051.txt.gz
Theta_e
338 338 335 335 340 332 339 337 330 320 323 329 331 340 340 342 338 339 337 326 326 324 323 325 324 326 327 327 328 328 328 328 328 328 328 327 328 330
338 337 336 334 338 335 341 340 338 330 322 333 334 338 341 340 336 341 339 329 324 323 322 322 322 322 323 323 323 324 325 325 325 326 327 328 329 329
336 333 334 336 337 338 339 338 329 329 326 330 333 335 335 336 338 339 337 333 327 322 322 321 319 319 319 319 320 321 322 323 323 324 325 326 326 326
333 331 329 332 334 337 340 336 337 338 330 326 326 324 326 328 330 329 330 330 328 322 320 318 316 315 315 316 316 317 317 318 320 321 321 322 322 323
333 329 326 329 329 335 337 332 337 336 336 326 320 322 322 323 321 323 324 324 324 322 318 316 315 315 315 314 314 313 313 313 313 314 317 318 319 320
328 327 326 327 330 331 332 335 335 331 329 322 320 319 319 320 321 317 316 320 318 320 319 317 316 315 314 314 314 314 311 309 309 310 310 310 311 313
327 325 327 326 323 323 337 335 335 330 326 320 318 316 315 316 315 317 314 314 316 316 316 315 316 318 318 316 318 315 310 309 308 308 307 306 306 307
325 325 327 323 323 316 315 317 330 331 323 320 317 315 315 315 316 315 313 312 307 317 314 314 320 320 322 322 316 309 307 307 307 307 306 304 304 304
327 327 327 330 326 331 316 315 315 314 321 327 320 317 315 318 317 317 321 319 313 313 314 310 317 318 323 315 307 306 305 305 305 304 304 303 302 301
326 327 325 329 330 331 331 332 331 331 330 329 326 321 322 322 321 321 319 315 314 315 318 308 314 317 320 319 306 305 304 303 303 303 303 302 300 299
327 326 325 327 309 306 331 328 326 324 310 310 311 306 304 307 315 320 314 312 309 311 315 313 314 314 316 320 315 305 303 302 302 302 302 301 300 299
326 323 310 319 303 304 329 328 324 320 320 319 314 310 313 309 308 322 316 312 312 310 317 316 319 318 314 321 320 313 310 301 300 300 300 300 299 305
321 319 316 300 299 305 312 331 323 322 315 322 320 319 318 317 320 320 320 318 315 316 321 324 321 319 319 317 319 318 314 313 309 305 298 299 298 300
323 319 311 298 299 302 314 302 304 313 323 320 318 316 316 317 320 318 322 320 326 327 328 329 322 321 319 318 315 320 320 320 318 314 314 305 297 297
321 304 296 295 297 302 299 302 306 323 322 318 317 317 318 319 322 317 318 323 330 328 328 328 325 326 322 322 321 319 318 321 323 322 321 320 315 307
305 310 304 304 303 308 311 311 324 323 321 320 318 319 320 319 318 317 316 323 325 323 327 327 328 328 320 324 325 324 322 319 325 325 324 324 324 323
315 318 316 313 311 313 319 321 324 323 321 321 321 319 321 319 319 320 320 324 323 321 319 321 326 330 328 329 323 324 325 327 328 328 327 324 325 326
319 318 315 314 313 315 317 318 321 318 321 321 321 321 320 320 321 322 323 324 322 320 319 321 322 320 322 325 321 326 328 328 330 332 332 327 327 331
320 320 316 316 317 317 317 318 318 320 322 321 323 323 324 324 320 323 323 322 321 320 322 322 320 319 317 316 324 316 328 329 329 329 329 329 328 330
323 321 318 318 318 318 319 318 320 321 321 324 324 324 325 323 322 323 323 323 322 322 321 324 323 324 321 320 322 327 300 332 329 328 327 328 327 304
325 324 323 322 321 321 322 323 323 325 325 326 327 326 326 323 323 324 324 305 310 321 319 321 325 304 331 331 325 325 329 301 316 328 328 326 325 327
322 325 327 327 325 325 326 326 326 324 327 326 327 327 327 327 325 325 325 322 321 320 321 325 330 329 329 326 325 327 328 331 313 305 303 308 322 320
326 324 327 329 329 327 327 326 326 327 327 327 328 329 329 327 328 327 325 324 323 324 325 324 326 328 327 327 320 327 329 329 327 326 328 305 301 301

GFSNE_sfc_thetae_054.txt.gz
Theta_e
335 334 332 332 332 330 331 329 322 315 318 322 325 330 332 333 333 333 333 327 326 323 323 324 326 326 328 328 328 329 328 327 328 328 328 327 328 329
334 333 333 332 334 333 332 330 327 322 317 324 326 329 332 334 332 335 331 327 323 322 322 322 323 323 324 324 324 324 325 324 325 326 326 327 328 330
333 331 332 333 331 332 332 329 328 326 321 324 328 330 329 329 332 330 332 328 325 322 323 320 319 320 320 320 320 322 322 323 323 324 324 325 326 327
332 330 328 332 330 329 330 327 328 328 324 321 323 323 325 327 329 328 329 328 327 322 320 318 318 317 316 316 317 317 318 319 320 320 322 323 324 325
331 329 326 327 326 326 328 327 328 329 327 321 318 321 321 323 322 324 324 325 325 322 318 317 315 315 315 315 314 314 313 313 313 315 317 319 320 321
330 326 325 325 326 326 328 329 327 326 324 319 318 318 318 320 320 318 316 320 319 321 319 317 316 315 314 314 314 314 311 309 309 310 311 311 312 314
328 326 324 324 322 321 326 329 326 326 320 317 316 316 315 316 315 316 313 314 315 317 316 318 319 318 317 317 319 316 310 309 308 308 308 307 307 308
326 324 326 322 321 314 317 317 325 324 319 317 316 314 315 315 315 314 313 312 308 317 314 314 318 318 320 321 314 309 308 308 307 307 306 305 305 304
326 323 325 328 324 325 313 314 315 315 319 321 317 317 315 316 316 315 315 314 311 314 315 311 316 315 316 312 309 307 306 306 306 305 305 304 303 302
326 325 325 327 327 327 327 326 326 324 323 324 321 319 319 319 320 319 317 313 314 315 316 309 314 314 317 310 307 305 305 304 303 304 303 303 301 300
326 324 324 326 308 307 327 325 322 318 310 311 309 306 304 307 312 317 313 312 309 310 315 311 311 313 314 312 308 305 303 302 302 302 302 302 301 300
325 321 308 317 302 304 327 325 319 318 318 317 314 308 310 309 308 318 316 312 311 309 314 312 312 312 308 315 312 306 304 302 301 301 301 301 300 300
321 318 316 299 303 303 314 324 319 320 314 320 318 317 317 318 318 318 318 316 313 313 316 318 315 313 313 312 314 310 309 307 304 302 299 299 299 300
322 319 310 297 300 303 311 301 304 313 321 318 317 315 316 317 317 319 318 318 320 320 318 318 317 314 312 311 310 313 310 311 308 307 306 303 298 298
320 307 296 297 299 303 300 302 308 320 318 316 314 315 317 319 317 317 318 319 322 324 324 320 320 319 316 315 314 311 311 313 313 311 311 311 307 300
304 306 304 304 305 307 309 313 323 320 318 317 316 317 318 318 315 317 314 320 320 319 323 324 322 321 314 315 316 316 313 313 315 315 316 316 316 313
312 315 314 313 315 318 317 320 320 321 318 318 317 316 317 317 316 316 315 317 319 317 317 319 320 320 322 319 316 317 318 316 318 317 316 316 317 318
316 314 313 313 313 316 317 319 319 317 319 320 319 318 316 316 315 316 317 317 318 320 316 316 316 315 317 320 318 318 320 321 321 322 322 318 317 320
318 315 314 314 315 317 318 318 318 320 321 319 319 320 319 319 314 317 317 318 320 319 318 317 316 314 310 310 317 311 318 319 320 320 322 321 320 321
320 317 316 316 317 317 318 319 320 320 320 321 320 321 320 320 319 320 320 320 319 318 317 318 316 316 313 313 315 320 302 321 321 321 320 320 320 310
322 320 318 318 319 319 320 320 321 321 321 323 323 322 323 322 321 321 320 304 309 320 318 317 320 303 322 322 318 318 322 302 315 322 320 318 317 317
322 323 321 321 320 321 322 321 322 319 322 325 324 323 324 323 321 321 321 320 317 318 317 318 320 320 318 317 316 318 320 322 306 305 305 311 316 311
324 326 325 325 323 324 325 324 325 324 325 325 325 325 325 323 322 323 323 323 321 319 318 317 318 320 320 321 314 319 320 321 322 321 320 305 304 302

GFSNE_sfc_thetae_057.txt.gz
Theta_e
327 326 324 323 325 324 324 321 316 310 311 318 319 324 329 332 333 332 330 327 326 323 323 324 326 327 328 328 328 328 329 328 328 328 328 327 327 327
326 325 324 324 325 325 325 323 321 315 311 318 323 323 327 331 334 330 329 327 323 322 323 323 322 323 323 323 324 325 325 325 324 325 326 326 326 328
325 325 325 326 325 324 325 323 321 318 314 319 323 325 324 327 328 328 329 326 324 322 322 321 320 320 320 321 321 321 322 322 322 323 323 324 325 328
325 324 325 328 323 324 324 323 322 320 319 319 321 323 324 327 329 327 327 327 326 322 321 320 319 318 318 317 317 317 317 318 319 320 321 322 324 326
326 324 323 323 323 324 325 325 322 323 320 319 318 320 321 324 323 324 324 324 325 322 317 317 317 317 316 315 314 314 314 313 313 314 317 319 321 322
325 324 321 323 322 323 325 325 323 322 318 317 318 317 318 320 321 319 317 320 319 321 319 318 317 316 315 315 315 315 311 309 309 310 311 312 313 315
322 322 321 323 321 321 325 324 323 318 317 317 316 316 316 317 316 316 314 315 315 318 318 318 318 317 316 316 318 316 311 309 308 308 309 308 307 308
320 319 322 322 320 313 317 318 322 320 317 317 316 316 316 315 315 315 314 314 309 317 316 315 319 318 319 319 312 310 309 308 308 308 307 306 305 305
320 319 323 326 321 321 312 314 315 314 316 318 317 317 315 316 316 315 315 312 311 314 317 313 317 316 317 314 308 307 306 306 306 306 305 305 303 302
321 321 323 323 319 322 321 321 320 319 319 321 320 318 318 318 318 318 314 313 315 315 316 310 314 314 314 311 306 306 305 304 304 304 304 303 302 301
321 322 322 322 306 305 323 319 316 315 309 309 308 305 304 306 313 316 313 312 310 310 315 312 312 312 313 308 306 305 304 303 302 302 303 302 301 300
319 319 302 313 301 304 321 318 316 316 316 314 311 307 309 309 308 317 315 312 310 309 314 311 311 310 307 311 308 306 304 302 301 301 302 301 300 301
320 317 312 300 300 302 309 319 316 317 312 317 316 316 315 317 317 317 316 314 312 310 314 314 310 310 307 307 308 306 305 304 303 302 300 300 299 300
319 317 307 298 298 302 310 299 302 311 319 317 315 315 315 315 316 317 317 315 319 317 316 316 313 311 308 307 308 307 305 305 304 305 305 302 299 298
318 308 297 297 298 302 299 301 307 319 317 315 314 315 316 316 318 317 317 317 318 320 318 317 317 314 311 310 308 307 306 308 308 307 304 305 305 299
303 307 304 304 305 308 309 314 320 319 317 315 315 316 317 316 315 315 314 316 316 317 321 317 317 317 313 312 311 310 310 308 309 309 310 308 309 308
311 315 315 315 315 316 317 319 318 318 316 316 315 315 316 314 314 313 313 315 316 312 312 315 316 316 315 311 310 311 313 311 312 311 309 310 312 314
314 314 313 315 316 316 317 317 318 314 317 317 316 316 316 315 313 314 315 314 314 315 312 312 313 311 311 313 317 316 314 314 316 315 313 311 313 316
315 314 313 314 316 317 318 317 317 318 319 317 317 316 315 315 309 314 314 315 313 315 313 312 311 310 307 307 310 308 316 315 312 313 316 316 318 319
315 314 314 316 317 317 318 318 318 318 318 318 317 318 316 316 313 315 315 314 313 315 313 313 311 312 309 309 307 312 301 316 312 314 316 317 318 309
313 316 317 317 317 318 318 319 319 319 319 319 319 316 318 315 315 316 315 303 306 315 313 311 314 302 317 314 311 312 317 300 313 317 315 314 316 313
316 315 317 318 318 318 318 319 316 314 317 319 319 318 318 317 316 316 316 315 312 313 316 318 317 312 310 313 312 313 315 317 308 303 305 312 316 312
321 318 317 316 319 319 319 318 317 317 317 319 320 319 319 318 317 317 316 317 318 316 315 315 311 312 313 314 309 313 312 317 320 320 319 303 302 303

GFSNE_sfc_thetae_060.txt.gz
Theta_e
325 324 321 321 321 321 320 318 314 308 309 315 315 321 325 328 330 330 328 326 325 321 322 324 325 327 328 328 329 329 329 330 329 328 328 327 327 326
324 323 322 321 321 322 322 320 317 313 309 314 318 319 327 330 330 327 327 326 322 321 322 323 323 323 324 324 325 326 326 325 325 325 326 326 326 327
323 323 322 323 323 323 323 320 319 316 311 320 322 321 324 327 328 327 327 326 323 321 322 321 320 320 320 321 321 322 322 322 322 323 323 323 324 326
322 322 323 326 322 322 322 322 319 318 316 318 321 322 323 327 327 325 326 327 325 321 321 320 319 318 317 317 316 317 317 317 318 319 320 321 323 326
323 322 322 323 319 321 323 324 322 321 318 320 318 320 322 325 323 323 323 323 324 323 319 319 317 317 317 316 315 314 312 312 312 313 316 318 320 322
324 322 321 321 321 322 323 324 322 318 318 320 319 317 319 321 322 320 317 319 318 321 320 320 319 318 316 316 315 314 311 309 309 309 311 311 312 315
321 321 320 321 321 321 324 323 322 319 317 317 316 316 316 318 318 317 314 316 315 318 319 320 320 319 317 316 319 316 310 309 308 308 308 307 307 309
318 318 319 320 319 313 316 317 321 319 317 317 316 316 317 315 316 316 315 316 311 318 317 316 320 318 319 320 313 309 308 308 308 307 307 306 305 305
318 317 319 324 320 321 312 311 313 311 316 319 316 317 316 317 317 316 317 314 311 314 318 313 318 316 318 313 308 306 306 306 306 305 305 305 304 303
319 318 319 322 321 321 321 321 319 318 317 319 318 315 318 319 319 317 315 314 315 314 316 310 314 313 314 314 306 306 305 304 304 304 304 304 302 301
319 320 320 321 303 304 321 318 317 315 307 308 307 305 303 306 312 316 314 313 311 311 314 312 312 313 312 310 311 305 304 303 303 303 303 303 302 301
318 316 304 315 300 302 318 318 316 314 314 313 311 306 309 307 307 318 316 313 310 310 314 311 311 312 310 313 311 310 306 302 302 302 302 302 301 302
319 316 313 299 298 299 308 320 315 315 311 315 316 315 315 315 316 316 314 316 311 309 314 314 312 310 310 308 308 307 306 305 303 302 300 300 300 302
318 317 311 298 297 299 308 298 301 309 317 316 315 314 315 315 316 317 316 316 318 316 315 316 312 311 309 308 306 307 305 304 303 305 304 303 299 299
318 308 296 296 298 301 298 300 305 317 316 314 314 314 316 316 317 316 315 317 318 317 318 317 315 314 312 308 307 307 306 306 306 306 305 305 306 301
304 306 305 304 304 305 308 313 318 318 317 315 315 316 316 316 315 314 313 313 314 316 316 317 317 315 312 312 310 308 308 308 306 307 307 307 306 306
311 315 316 315 315 316 318 318 317 317 316 316 315 315 314 314 314 312 312 315 313 313 312 315 315 316 315 311 308 309 309 309 310 310 306 306 309 310
315 315 314 315 315 317 316 315 316 313 316 316 316 316 315 314 313 312 313 314 314 313 312 312 313 311 311 311 314 313 311 311 314 313 310 308 312 315
315 314 315 316 316 317 316 316 314 315 317 316 316 316 315 315 310 312 313 313 312 314 311 311 310 309 305 306 308 307 311 310 310 309 312 310 312 315
315 314 314 316 317 317 317 316 316 317 316 317 316 316 315 314 311 312 313 313 313 312 311 310 310 310 310 309 307 307 299 311 309 310 310 311 313 307
315 315 316 317 318 317 318 318 318 317 317 317 317 317 316 313 312 314 313 302 305 312 312 311 314 298 313 311 308 309 312 299 309 312 311 311 314 313
316 316 317 318 318 318 318 318 317 315 317 318 318 317 317 315 313 315 314 314 313 313 313 315 314 309 309 310 310 310 312 315 306 302 304 309 316 311
314 315 317 317 318 319 318 318 317 314 317 319 319 316 316 316 315 315 316 316 314 314 313 314 312 311 312 311 308 311 309 311 313 314 317 304 301 302

GFSNE_sfc_thetae_063.txt.gz
Theta_e
324 322 321 319 319 318 317 316 313 307 308 313 314 318 325 324 328 328 327 327 325 321 321 324 325 327 328 329 329 329 330 330 331 329 329 328 327 326
323 322 319 319 319 319 318 317 314 312 308 311 315 317 325 327 330 326 325 325 321 321 321 322 323 323 324 324 324 326 327 327 325 325 326 326 326 327
322 322 321 320 319 319 319 318 316 314 310 319 320 322 325 326 327 327 327 326 322 321 322 321 320 320 320 321 321 323 323 323 322 323 323 324 324 325
322 321 320 322 320 320 319 318 317 316 314 316 320 321 323 326 325 325 326 326 324 321 319 319 318 317 317 317 317 317 317 317 318 320 320 320 322 324
322 320 320 321 319 319 319 319 318 319 316 316 318 321 323 325 322 322 322 321 323 322 317 317 318 317 316 316 315 314 312 312 312 314 316 317 319 322
322 321 320 321 319 318 320 322 321 319 318 318 319 318 320 322 322 319 316 319 318 321 320 319 318 318 316 315 315 314 311 309 309 309 310 311 313 315
320 320 320 320 320 319 321 322 320 319 318 318 316 316 317 318 318 317 315 316 316 319 319 319 320 321 319 317 319 315 310 309 308 308 307 307 306 309
318 318 318 318 317 313 315 316 320 319 317 317 313 315 317 315 317 317 316 315 313 318 317 315 321 320 321 321 314 309 308 308 307 307 306 306 305 306
317 316 317 321 318 320 311 311 312 311 316 320 316 318 317 317 318 316 316 312 312 315 318 313 318 317 319 314 310 308 307 306 306 305 305 305 304 303
317 316 316 318 318 319 319 320 320 319 319 319 319 317 315 319 320 319 314 314 315 314 317 310 315 313 315 314 306 306 305 304 304 304 304 304 302 302
317 317 318 319 307 304 321 319 317 315 307 307 308 306 303 305 312 317 314 314 311 311 314 311 313 312 312 313 312 305 303 302 303 303 303 303 302 301
318 316 304 314 299 300 319 318 315 314 313 312 310 306 307 307 307 318 316 314 310 311 314 310 311 312 309 313 313 313 310 303 302 301 302 303 301 303
318 316 313 299 298 298 307 318 315 315 310 315 315 315 314 314 314 316 315 316 312 307 311 312 312 311 312 310 311 311 310 308 305 304 301 300 300 301
318 316 310 297 296 298 307 297 299 309 316 315 314 313 314 315 314 316 314 316 316 314 314 315 312 312 310 308 309 307 306 306 305 306 305 302 300 299
316 307 298 295 295 298 297 298 304 317 316 314 313 314 315 316 316 314 313 315 315 316 318 317 315 313 313 312 309 307 306 306 304 305 304 304 306 302
303 305 303 303 303 303 307 312 317 316 316 315 314 314 316 315 314 314 313 314 313 312 316 317 316 316 312 311 311 309 308 308 305 305 306 306 306 306
310 314 314 312 312 314 317 317 316 316 315 315 315 314 314 314 313 314 313 314 313 312 311 313 315 316 315 313 310 312 311 308 309 308 305 305 308 310
315 315 314 315 314 315 315 315 315 313 315 316 315 315 314 313 313 312 314 314 312 313 313 313 312 312 312 313 313 313 311 309 310 310 308 307 310 313
315 315 315 315 316 316 315 315 314 315 316 316 315 315 314 314 312 312 313 314 313 315 313 312 312 312 308 307 310 307 312 308 307 306 309 308 308 312
316 315 315 316 317 316 316 315 315 316 316 315 315 315 315 313 313 313 312 313 313 312 312 312 311 310 309 309 307 308 299 310 308 306 306 308 311 305
315 315 316 317 317 317 317 317 317 316 316 316 315 316 315 314 313 314 313 301 305 312 311 309 311 298 312 310 307 308 311 298 307 310 308 308 309 310
315 316 317 318 318 318 318 318 316 314 315 316 316 316 316 315 313 313 314 313 312 313 312 312 313 310 308 308 309 309 310 313 302 300 301 307 312 308
316 316 316 318 319 318 318 318 317 317 317 318 317 317 317 315 314 314 315 315 314 313 311 312 311 310 310 310 306 311 309 310 309 311 313 302 300 300

GFSNE_sfc_thetae_069.txt.gz
Theta_e
341 338 337 340 338 338 336 334 328 322 323 331 330 335 335 338 337 338 339 330 327 323 322 323 324 327 328 329 329 330 331 332 333 332 332 330 330 329
336 339 339 339 338 337 335 334 333 328 323 331 332 332 332 333 334 337 337 329 324 321 322 321 321 323 324 324 326 327 328 328 328 328 328 328 328 328
334 335 340 340 337 335 334 333 331 331 326 328 329 331 332 332 330 332 331 333 332 321 321 320 319 319 320 321 323 325 326 326 325 325 325 325 326 327
334 339 338 336 337 337 334 334 333 333 329 328 326 328 329 331 331 330 329 331 332 323 319 318 317 316 317 318 319 321 320 320 321 321 322 322 323 326
336 339 338 337 336 334 334 333 333 332 331 329 326 328 327 330 326 327 325 329 331 322 317 317 316 316 316 316 316 316 314 314 314 315 317 319 320 322
336 339 337 336 336 335 334 335 334 331 330 328 327 325 325 326 328 321 321 325 325 327 323 322 319 317 316 316 316 316 313 310 310 310 311 312 313 315
338 336 337 333 326 330 334 335 334 331 328 327 324 323 322 320 323 324 323 322 323 325 324 328 328 327 325 318 320 317 311 309 308 308 308 307 307 309
335 335 336 324 322 314 316 319 328 332 327 326 322 324 323 322 323 326 322 320 319 325 323 322 326 323 324 328 317 311 309 308 308 307 307 306 305 305
337 336 333 332 327 330 313 311 314 313 319 329 323 326 326 321 323 321 320 324 321 320 323 318 322 322 324 319 309 308 306 306 306 306 306 305 303 302
337 336 335 334 332 331 330 329 330 330 326 327 325 329 328 324 328 324 327 325 323 321 325 316 320 318 320 318 309 306 305 304 304 304 304 304 302 300
334 334 334 333 309 305 329 325 324 325 308 308 310 310 308 309 320 324 317 318 319 320 324 323 319 318 319 322 316 308 306 303 303 303 304 303 302 301
332 330 306 322 299 300 329 324 321 319 317 317 316 311 311 313 308 327 321 318 319 318 324 322 319 322 316 321 319 316 315 305 302 302 303 303 302 321
326 323 324 302 298 298 306 326 320 319 315 319 318 319 322 321 322 326 329 327 322 323 325 327 322 322 324 319 319 319 320 315 317 313 301 301 301 308
326 325 320 298 296 297 308 300 300 311 320 319 317 317 318 319 322 324 326 328 328 328 328 331 326 326 324 323 322 324 325 327 326 319 318 314 300 300
328 314 298 295 296 301 297 298 302 321 319 318 316 316 319 323 324 323 327 327 326 323 328 330 329 327 327 325 322 321 317 318 320 317 321 324 322 323
305 310 306 305 303 306 306 311 324 325 323 320 320 321 321 319 318 322 322 322 321 323 327 327 329 329 322 321 320 316 316 315 321 322 324 324 325 324
312 314 315 314 313 316 319 323 324 321 321 321 320 319 318 318 317 318 320 322 321 321 320 322 326 324 327 326 320 323 318 317 321 324 323 322 325 326
317 315 314 314 315 317 318 319 322 317 320 320 319 318 316 315 315 318 320 321 318 321 320 321 320 318 318 320 317 319 318 316 318 325 326 322 322 324
319 316 315 316 317 318 319 321 321 321 321 319 319 318 318 317 314 317 318 317 318 322 323 319 317 314 310 314 318 307 317 318 320 320 323 322 319 323
320 317 316 318 319 319 319 321 322 321 320 319 319 320 321 317 315 317 320 318 320 315 316 315 315 317 316 312 312 317 300 321 321 323 322 324 321 308
317 318 319 319 321 322 323 320 320 319 319 320 319 319 319 318 318 316 316 302 307 316 315 315 316 300 319 322 314 317 324 299 312 323 325 324 324 325
317 319 320 321 322 321 320 320 320 319 319 319 319 319 319 318 317 317 317 316 315 317 315 318 317 317 322 319 318 321 323 327 310 301 300 306 320 320
317 319 321 324 323 325 323 322 320 320 320 320 319 319 319 318 320 320 319 318 318 316 315 316 316 318 320 322 315 322 323 324 325 324 319 299 299 300

GFSNE_sfc_thetae_075.txt.gz
Theta_e
352 354 352 350 349 345 347 340 333 326 328 342 334 344 341 341 339 341 339 330 329 325 324 324 325 328 330 332 332 332 332 333 334 335 335 333 332 328
351 354 355 353 350 346 345 342 338 330 325 336 336 341 341 339 337 340 339 331 327 324 324 322 322 324 326 327 327 328 329 329 329 330 331 331 329 325
355 355 353 357 346 345 342 341 334 334 330 337 337 341 339 337 337 338 338 339 337 322 323 321 319 320 322 322 323 324 325 326 325 327 327 327 327 328
353 350 351 347 351 353 344 348 338 348 334 339 337 335 334 338 337 336 334 335 339 324 322 319 317 316 316 317 318 319 320 321 322 323 323 324 325 327
351 351 350 349 350 349 345 341 337 338 336 332 335 339 334 338 334 335 335 335 336 324 319 318 317 317 316 316 315 315 315 315 316 317 319 320 322 323
354 351 347 348 347 346 345 343 342 339 337 338 336 334 332 336 333 330 326 333 331 335 326 326 320 318 316 315 316 316 314 313 312 313 313 313 314 317
353 348 350 344 333 339 339 343 342 336 334 335 333 334 330 329 329 331 327 329 329 332 332 333 333 330 324 316 321 318 313 311 312 310 310 308 308 311
349 347 346 333 329 323 320 318 330 340 336 337 334 330 333 332 336 331 327 323 322 330 331 331 336 332 329 330 317 312 311 310 310 309 309 308 306 307
347 347 342 339 333 338 317 315 316 316 320 338 335 334 327 334 333 331 332 325 329 328 330 323 329 327 330 324 310 308 308 309 309 308 307 306 305 304
348 346 344 341 337 336 335 333 334 335 333 333 337 337 338 338 334 335 335 332 331 328 331 321 323 322 324 326 308 308 308 308 307 305 305 305 303 302
344 343 342 339 316 311 336 334 333 330 311 307 307 307 307 308 319 331 330 327 323 324 327 324 321 319 322 321 316 307 305 305 304 304 304 304 303 302
342 337 310 329 304 307 336 334 329 331 330 329 328 319 315 314 311 332 328 326 324 320 329 324 323 321 317 322 319 313 313 304 303 304 304 304 302 314
334 335 334 303 301 301 306 335 329 329 321 328 327 326 328 326 326 329 330 326 320 322 327 330 325 325 324 321 322 320 319 317 316 310 301 302 301 308
331 333 322 299 298 300 310 301 303 315 325 323 322 323 322 325 326 330 330 328 328 324 327 329 331 328 326 322 322 323 321 325 321 319 320 313 301 301
334 311 300 297 298 304 299 299 304 326 323 322 320 319 320 323 325 327 330 328 327 328 331 334 333 334 331 330 325 325 322 324 325 322 322 322 321 321
311 321 314 312 310 315 314 312 326 326 322 324 323 324 323 322 322 326 325 326 324 325 331 333 334 334 331 332 332 329 327 326 327 329 327 330 326 327
324 325 323 323 322 322 323 324 325 325 325 325 325 322 321 320 322 326 325 327 323 323 323 328 331 333 335 331 327 329 328 328 330 329 328 323 323 325
325 325 321 321 322 321 322 326 326 321 324 325 324 322 322 320 324 325 325 324 322 324 325 325 327 326 326 328 324 329 329 328 326 325 324 321 321 324
326 323 320 320 322 324 325 326 323 326 326 324 323 323 323 322 320 321 321 322 324 323 324 323 324 322 319 317 326 308 325 328 327 323 322 320 317 320
326 323 322 321 323 323 325 326 324 325 325 325 324 324 322 320 319 320 323 322 323 323 325 326 324 324 321 320 320 325 299 322 323 324 322 320 320 303
325 323 323 323 323 325 327 325 325 324 323 324 323 322 322 320 320 321 321 304 309 319 319 320 326 298 326 324 318 320 323 298 311 321 321 319 319 320
325 323 322 322 322 327 326 327 326 324 324 323 323 323 324 322 320 320 321 320 321 323 323 325 324 320 318 317 315 318 321 324 306 300 300 307 318 317
325 325 323 325 326 328 327 324 326 324 324 324 324 324 323 321 321 323 320 321 321 320 323 321 319 318 318 317 310 316 318 320 320 318 311 302 301 301

GFSNE_sfc_thetae_078.txt.gz
Theta_e
352 352 347 346 347 345 345 341 331 325 327 336 333 337 338 336 336 334 336 329 329 326 324 324 325 326 328 330 332 333 334 333 333 335 336 336 336 335
353 349 349 346 349 347 345 343 339 333 325 332 334 337 338 338 334 335 335 330 327 324 324 323 321 322 324 326 327 329 330 329 328 330 331 331 331 330
349 347 346 349 348 345 343 342 337 335 328 330 335 338 335 333 334 333 333 333 331 323 323 322 319 319 321 322 323 324 325 325 325 326 327 327 326 326
347 346 347 350 348 345 342 339 336 337 331 327 332 332 332 333 333 331 331 333 333 325 320 319 316 315 316 317 318 319 319 320 322 323 324 324 325 324
346 347 348 348 346 343 343 340 337 336 336 331 330 332 331 332 331 331 331 330 333 325 320 319 317 317 316 316 314 314 314 314 315 317 320 321 322 324
349 349 348 347 345 344 341 338 336 334 333 330 330 330 328 331 330 326 323 328 328 332 324 323 319 319 317 315 315 315 312 311 312 314 312 314 315 317
350 350 348 343 336 340 341 338 336 334 331 330 327 327 326 326 325 327 324 325 327 328 329 325 324 324 320 316 320 317 311 310 312 312 311 310 309 311
348 348 346 332 329 322 319 322 332 335 331 329 328 325 325 326 328 326 325 321 319 326 327 326 330 326 326 327 317 312 309 311 311 311 309 308 307 307
348 345 342 340 330 327 317 319 316 319 323 332 328 327 326 329 327 325 325 321 320 325 325 320 327 324 327 323 310 308 307 309 309 310 310 307 306 304
347 345 342 338 336 335 332 331 330 328 327 330 332 331 331 332 329 329 327 325 325 325 326 317 322 320 322 320 307 307 306 306 306 307 308 306 304 302
346 345 342 338 315 314 333 330 330 324 309 308 307 306 307 305 315 327 324 322 320 321 325 321 319 318 320 319 314 307 305 305 305 304 305 304 303 303
343 340 318 334 305 308 334 332 328 327 325 324 323 316 316 314 310 326 325 322 319 318 324 321 320 318 316 320 317 312 311 304 306 305 304 304 303 308
338 334 328 305 304 303 314 333 328 329 321 326 326 325 326 324 325 327 327 325 321 320 324 325 321 321 319 317 319 317 317 313 312 307 301 302 301 307
335 334 316 300 299 301 314 300 304 317 327 325 323 323 323 323 324 326 325 326 326 324 325 324 323 322 321 318 317 320 319 320 317 317 316 309 301 301
333 314 298 297 298 302 299 300 305 325 323 320 318 320 320 321 323 324 326 326 325 325 327 326 325 324 323 320 318 320 318 320 322 320 320 319 318 313
307 312 311 310 310 309 311 311 326 325 322 321 320 321 322 320 319 322 321 323 322 323 327 328 328 327 323 323 322 320 320 317 321 322 322 322 321 322
318 321 322 322 320 321 322 323 325 324 322 323 322 320 320 320 319 321 321 322 320 319 319 325 327 327 327 324 321 322 322 321 323 322 321 321 323 324
323 322 320 320 320 321 321 321 323 320 324 323 323 321 320 319 318 320 322 321 320 320 321 321 323 321 322 324 322 321 321 321 322 323 323 320 319 321
325 321 319 319 320 320 322 323 323 323 324 323 322 321 321 319 315 321 322 321 320 320 320 320 320 319 314 313 322 308 320 320 320 320 318 317 316 319
325 321 319 319 322 323 325 325 324 325 324 322 322 321 322 320 319 319 320 319 319 319 320 320 320 320 316 314 315 319 300 318 316 318 320 321 315 298
323 322 321 322 324 324 326 324 324 324 323 323 322 321 321 319 318 318 318 300 309 317 316 317 318 296 321 320 314 315 318 300 309 318 318 316 316 317
322 322 321 323 325 326 326 322 321 321 321 321 322 321 321 320 319 318 320 319 319 320 319 321 320 318 315 314 313 315 317 320 302 301 302 306 313 312
323 321 322 323 326 327 326 325 323 323 323 322 322 322 322 319 320 320 318 318 319 319 319 317 317 317 315 315 310 315 316 313 317 314 307 300 299 300

GFSNE_sfc_thetae_081.txt.gz
Theta_e
331 335 339 342 342 341 338 332 325 319 320 326 327 332 332 332 333 332 331 329 328 325 323 323 324 326 327 329 330 331 331 333 334 336 337 337 337 336
340 341 343 345 344 343 340 335 328 324 319 326 328 330 331 333 334 332 333 328 326 323 323 322 321 322 323 324 325 327 328 329 329 330 332 332 333 333
343 344 345 347 343 340 339 336 331 328 323 327 329 329 328 327 328 329 330 328 327 322 322 321 319 319 319 321 322 323 325 326 325 326 327 328 328 329
344 344 345 346 344 341 339 334 330 328 325 323 325 326 326 327 327 325 327 330 328 325 321 320 316 315 315 316 318 319 319 320 321 323 324 324 325 327
346 345 345 342 341 343 336 332 330 331 327 324 323 325 324 326 324 325 325 325 330 323 320 319 317 315 315 315 314 313 312 312 313 316 319 321 321 322
347 345 342 343 342 342 336 332 330 328 327 324 323 322 322 324 324 321 319 322 321 328 323 320 319 317 316 314 314 314 311 309 309 311 313 313 314 316
344 345 344 343 336 337 337 331 328 325 324 321 321 320 320 321 321 320 318 319 320 325 325 321 321 319 319 316 320 318 311 309 309 310 311 309 310 312
342 342 345 332 330 324 324 327 329 326 323 322 319 318 318 320 321 320 318 317 318 321 323 324 324 321 320 324 317 312 309 308 308 310 310 309 309 308
343 342 342 343 329 330 318 316 319 319 324 325 321 320 320 322 322 319 319 317 317 319 320 320 325 323 325 324 311 309 307 307 307 308 309 308 307 306
341 341 338 329 328 326 327 327 324 324 323 328 325 324 324 325 324 323 321 319 321 323 322 317 321 320 322 317 308 307 305 305 305 307 308 307 305 304
340 340 336 332 312 315 327 325 321 318 308 306 308 307 305 306 315 322 319 319 318 318 323 316 318 318 320 319 313 306 304 304 304 305 306 305 304 303
337 334 318 329 307 309 328 325 320 317 317 316 315 312 311 311 308 322 321 320 317 317 320 316 318 318 316 320 317 311 310 304 303 304 305 305 303 308
335 332 329 307 305 305 316 326 322 320 315 319 318 318 317 317 320 322 322 322 320 318 322 321 315 318 315 315 317 316 316 311 311 308 304 304 302 308
332 330 319 305 303 302 313 302 304 314 321 318 317 315 316 316 320 322 321 324 324 322 323 323 317 318 318 316 316 318 317 317 316 316 313 306 300 300
332 315 301 300 299 303 299 302 307 320 318 316 317 317 316 318 319 322 324 323 322 322 324 324 323 323 320 316 315 317 316 318 318 318 317 315 315 312
307 307 308 308 308 306 308 311 320 318 316 315 315 318 319 316 316 320 320 320 319 318 324 325 325 324 320 322 319 315 316 315 320 320 320 320 320 319
315 318 318 316 316 317 315 316 318 318 317 316 315 315 315 317 316 319 320 320 318 316 316 321 325 325 324 321 318 318 316 315 317 319 320 319 320 320
320 319 317 316 316 317 316 315 321 316 316 318 318 315 317 317 314 317 319 318 315 315 318 318 318 316 317 320 319 318 317 317 318 319 318 318 319 322
319 318 318 317 318 319 318 315 316 317 319 320 319 318 318 318 313 318 318 316 315 314 317 316 318 315 309 308 316 307 315 315 316 315 316 318 314 316
318 316 316 317 318 318 318 318 317 318 317 317 319 319 319 317 313 315 316 315 316 315 316 317 316 315 314 312 311 315 300 316 314 312 313 316 305 297
316 316 317 320 320 320 320 319 319 319 317 316 316 316 318 317 315 316 314 299 306 314 313 312 313 296 318 317 312 311 314 301 305 314 316 315 314 315
317 317 319 320 319 320 319 318 317 317 318 319 319 318 318 318 316 316 317 315 315 316 316 316 317 316 314 312 311 313 315 317 302 299 299 302 312 310
318 318 321 322 319 320 319 318 319 317 316 318 318 319 319 317 318 317 317 317 316 316 316 312 313 315 312 311 308 313 313 309 309 313 309 300 300 300

GFSNE_sfc_thetae_084.txt.gz
Theta_e
338 338 337 337 337 339 337 334 329 322 323 326 327 331 332 332 333 333 330 328 327 323 322 322 323 325 326 327 329 330 330 331 334 335 337 338 339 339
338 337 335 334 337 339 339 337 332 329 325 325 327 328 329 331 333 330 330 328 325 323 322 321 320 321 322 323 324 326 327 328 328 330 332 333 334 334
339 338 337 338 339 342 341 338 332 327 327 324 327 326 325 326 328 328 329 327 326 321 322 320 318 318 318 319 320 322 324 325 325 327 328 328 329 331
339 338 339 342 341 342 340 337 336 331 325 323 325 325 323 323 324 325 327 329 327 327 320 319 316 314 314 315 316 317 318 319 321 322 323 324 326 329
342 340 341 342 341 344 342 338 333 331 325 323 322 323 322 323 322 322 323 323 326 325 318 317 316 315 314 313 312 312 311 311 312 314 318 321 322 324
334 342 344 343 343 343 341 338 331 329 325 322 320 321 320 322 322 320 319 320 320 326 322 319 319 317 315 313 313 314 311 308 308 310 311 313 314 316
331 335 342 342 335 337 342 336 329 326 322 320 319 318 318 319 320 319 318 317 318 320 319 321 320 319 319 316 318 317 311 308 307 308 308 308 308 310
325 331 339 332 330 322 322 322 329 327 323 320 318 317 317 318 318 318 316 314 313 320 319 318 322 320 321 321 316 313 309 308 307 307 307 307 307 307
324 328 334 343 331 339 318 317 318 315 321 323 320 319 318 320 319 317 316 315 314 316 317 315 324 322 324 324 312 309 307 305 305 306 306 306 306 305
324 326 331 338 335 335 328 329 327 326 323 326 325 324 322 322 323 322 320 316 316 318 319 316 321 319 322 320 307 307 305 303 303 304 305 305 304 304
323 327 332 338 318 308 331 326 322 318 308 307 311 308 306 307 315 320 317 315 314 315 323 315 318 318 319 319 317 306 304 302 302 303 304 304 303 304
325 329 316 328 306 307 329 325 321 318 318 317 315 310 310 309 307 321 319 315 313 314 320 318 317 317 315 319 317 313 311 303 302 301 303 304 302 312
323 327 330 307 306 304 311 325 320 319 316 317 315 316 315 316 317 318 319 319 315 318 320 320 316 316 316 314 317 316 315 310 310 307 301 302 302 311
321 327 326 306 305 302 311 305 304 311 319 316 314 315 313 313 316 318 319 322 324 322 323 323 318 316 313 314 315 317 316 317 315 314 313 307 302 301
320 321 309 303 301 305 304 300 306 321 317 317 317 316 314 316 319 322 322 321 321 322 324 325 322 319 317 316 312 316 315 317 317 318 316 315 314 310
309 311 309 309 309 309 308 314 322 320 318 319 318 314 319 319 318 319 318 319 318 317 320 321 323 322 320 320 319 316 318 313 318 319 319 319 318 316
312 314 318 320 318 319 319 318 317 317 314 313 313 317 317 316 317 319 317 318 317 316 314 320 323 324 322 320 318 319 315 313 314 318 318 318 319 320
319 320 320 320 319 319 318 317 316 313 314 315 313 313 313 314 315 317 316 317 316 316 316 318 317 316 318 318 317 318 315 315 316 316 318 317 317 320
321 320 318 319 319 319 317 319 318 315 316 316 315 314 313 313 311 316 317 316 314 313 315 316 317 312 308 307 312 307 314 313 313 312 319 318 317 318
321 319 317 318 318 316 316 315 315 316 317 316 315 318 316 316 312 314 316 316 313 315 315 316 315 315 312 312 309 312 295 312 311 310 310 312 310 298
319 318 317 317 317 317 317 316 317 317 315 316 316 317 318 316 313 312 313 300 305 314 313 313 314 295 317 316 310 311 311 296 305 312 313 312 312 314
316 316 317 317 317 318 318 318 315 314 315 315 316 314 317 317 313 314 316 313 314 314 314 314 312 313 312 311 310 310 313 310 300 298 298 301 309 309
316 317 319 320 321 320 318 318 317 316 316 319 316 317 317 316 316 316 316 317 316 316 315 313 314 313 309 312 307 312 309 307 308 308 309 299 299 299

GFSNE_sfc_thetae_087.txt.gz
Theta_e
334 336 338 338 337 334 332 330 326 322 322 326 326 331 332 333 335 333 333 329 327 323 323 323 323 324 326 327 328 329 330 331 333 334 337 338 339 339
336 335 337 337 337 334 335 333 332 328 325 328 327 329 330 332 333 332 331 328 325 323 322 321 320 320 321 322 323 325 327 327 327 329 332 333 334 335
335 335 335 337 335 334 335 335 334 333 329 333 327 328 327 327 329 328 330 328 326 321 322 320 318 318 318 319 320 321 323 324 324 326 328 329 329 331
332 335 335 337 335 336 336 337 337 336 332 329 326 325 324 323 325 324 326 329 326 324 320 318 315 314 313 314 315 316 316 318 320 322 324 325 325 329
329 331 334 337 335 337 337 337 337 336 332 327 325 323 323 322 321 321 322 322 325 326 318 318 317 315 313 312 311 311 310 310 311 314 317 320 322 324
326 328 331 333 337 339 337 338 337 333 330 326 322 321 321 320 321 319 319 319 320 324 322 320 319 318 315 313 313 313 310 309 307 309 310 311 313 317
321 324 325 326 325 327 339 340 340 333 328 324 320 318 318 320 321 319 319 317 317 319 318 321 321 320 319 315 316 315 312 309 307 307 308 307 307 310
314 318 322 322 323 318 318 322 335 334 326 324 321 318 317 319 319 319 316 314 313 317 317 316 322 320 321 320 315 312 310 308 307 306 306 306 306 307
311 315 319 325 322 329 325 315 316 315 321 327 323 319 317 320 320 316 315 314 314 314 316 313 320 321 323 322 311 309 308 306 306 306 305 304 304 304
310 314 319 320 321 322 331 333 331 328 323 326 327 323 326 325 325 322 320 315 314 316 316 312 317 320 321 322 308 307 306 304 303 303 304 303 302 302
311 315 318 319 313 306 324 332 330 324 310 308 310 310 307 305 314 320 315 314 313 317 319 314 317 319 320 319 319 307 304 302 302 302 302 302 302 302
309 314 310 314 308 305 320 332 326 322 318 318 317 310 310 310 306 320 317 313 312 315 321 317 316 317 315 319 317 315 313 304 302 301 301 302 301 310
309 313 318 305 303 302 303 329 324 321 316 320 318 317 316 315 317 320 318 317 314 314 317 321 317 316 313 312 317 317 316 311 311 308 301 300 300 309
309 315 316 303 302 299 304 307 304 312 320 317 316 315 312 313 316 317 317 318 319 319 321 323 318 317 315 314 314 317 316 317 315 314 313 305 300 300
309 309 303 300 299 301 301 305 304 320 318 317 316 316 312 313 315 317 317 318 319 323 324 323 320 318 317 314 313 315 314 316 317 317 316 314 313 310
305 308 308 306 304 312 305 306 322 320 319 319 318 316 316 317 318 320 316 315 316 316 320 322 322 322 319 317 316 315 317 314 317 318 319 318 318 317
311 312 311 312 315 315 316 320 320 318 317 316 317 317 317 317 317 318 316 318 317 315 314 318 320 322 322 320 318 318 317 316 315 317 317 317 319 319
310 312 313 316 318 319 319 318 319 313 314 314 315 315 316 316 316 317 318 317 316 315 314 316 318 319 319 318 314 315 315 314 313 313 317 316 317 320
311 316 319 320 320 321 321 319 317 315 314 314 313 312 313 315 313 316 317 316 315 315 315 314 313 311 306 305 310 300 316 311 311 310 316 317 315 319
315 320 320 321 321 320 320 319 317 315 315 313 313 313 313 312 313 314 314 315 313 310 311 314 313 312 309 310 310 308 292 310 308 307 308 310 312 300
320 319 320 321 320 319 318 317 317 315 314 314 314 315 315 315 313 314 311 299 304 312 311 312 313 295 315 313 311 308 309 296 303 311 312 312 312 312
319 318 319 319 318 317 317 317 315 314 315 315 313 317 317 315 312 310 310 308 310 310 309 311 313 311 310 309 309 309 312 310 301 298 298 301 307 305
318 318 318 318 317 317 317 316 316 315 315 315 314 312 312 312 312 314 316 315 315 315 314 313 312 309 308 308 306 306 304 304 305 305 305 300 300 299

GFSNE_sfc_thetae_093.txt.gz
Theta_e
336 337 333 336 332 333 333 331 331 326 328 333 333 345 348 346 344 348 346 336 330 325 323 324 325 327 328 329 329 330 331 332 334 335 336 338 339 339
341 339 337 338 337 338 337 340 340 335 330 334 336 344 347 346 347 348 347 333 328 325 323 322 322 323 324 324 325 325 327 328 328 329 331 332 334 335
341 340 339 340 337 339 343 343 338 336 331 334 340 345 340 341 345 345 341 343 342 323 324 322 320 320 321 321 321 321 323 325 325 326 326 327 329 331
333 335 333 333 335 339 337 338 339 338 335 328 331 337 335 337 336 340 341 340 342 329 322 320 318 317 316 315 315 315 316 317 319 321 323 323 326 329
326 324 324 327 330 332 334 335 339 340 338 329 325 331 332 334 335 336 336 338 340 328 320 318 316 316 315 314 312 311 310 309 309 312 314 318 322 324
320 319 319 320 322 326 329 331 332 333 337 336 331 327 330 337 335 333 333 336 337 336 330 326 321 318 316 315 315 314 310 307 306 307 308 309 310 315
320 318 320 318 317 317 318 322 326 326 330 334 332 325 326 331 328 335 333 337 337 339 338 337 334 334 332 318 322 318 312 309 307 306 306 305 305 307
319 318 319 317 315 311 312 313 319 327 327 332 334 326 326 328 331 331 332 332 331 338 336 335 334 335 336 335 318 313 311 309 308 307 306 305 305 305
320 319 317 314 315 317 313 312 312 309 313 326 329 331 334 336 335 331 333 335 333 334 335 333 331 331 335 334 315 309 308 307 307 306 306 305 305 303
320 319 319 318 318 317 318 319 321 322 327 329 327 331 337 344 341 338 338 336 336 335 336 329 332 330 336 336 313 308 306 305 305 305 305 305 303 302
319 319 318 318 308 302 316 317 319 321 320 310 308 309 306 307 324 333 331 330 330 330 330 333 328 331 333 332 328 308 305 304 303 303 304 303 302 301
318 318 305 310 302 299 314 316 316 319 326 326 326 318 309 317 307 335 334 330 332 325 329 329 328 329 326 327 325 325 325 306 303 302 302 302 301 323
314 314 316 301 299 297 297 313 315 319 318 322 323 326 325 326 326 330 337 338 333 332 330 330 327 328 326 324 324 324 326 323 326 321 301 301 300 308
314 315 316 301 297 296 299 300 298 301 313 317 322 323 324 324 326 331 336 338 339 336 334 335 332 328 324 319 322 321 324 325 326 327 325 306 300 299
315 310 302 297 294 298 297 296 296 315 317 321 321 323 326 329 330 331 332 333 335 334 334 333 333 327 322 324 318 319 320 322 325 325 324 325 325 324
307 311 307 303 299 304 306 312 317 318 320 322 322 325 326 324 326 326 326 327 327 326 328 332 329 325 324 327 327 325 327 324 327 327 324 326 326 325
309 313 313 313 314 316 317 315 318 318 322 322 321 321 323 324 323 326 324 327 326 325 325 326 329 331 320 323 323 320 322 323 325 323 321 321 323 321
308 311 311 313 314 314 317 316 317 317 322 322 322 321 320 322 324 326 328 327 324 326 326 327 326 323 321 311 308 321 321 324 321 322 322 321 317 306
309 310 311 313 314 315 317 317 318 321 322 321 321 323 323 324 321 325 325 326 325 325 325 326 323 322 319 316 314 299 318 323 326 324 325 323 306 302
308 308 310 314 315 316 319 317 320 322 321 321 322 323 324 323 322 320 322 324 322 318 320 320 321 322 320 321 313 307 293 320 322 321 320 307 303 296
306 309 310 314 315 318 321 321 321 322 321 321 322 325 324 322 320 320 318 304 311 320 322 323 322 296 326 321 310 305 297 294 301 307 311 313 307 305
309 309 312 314 317 318 321 321 321 320 321 322 325 325 324 323 320 320 323 320 323 324 324 317 318 321 323 321 309 305 300 296 294 293 294 298 306 305
309 312 314 316 318 320 322 320 322 321 323 327 326 325 325 324 324 325 324 325 324 322 322 317 316 314 311 307 302 303 303 300 299 297 294 292 293 293

GFSNE_sfc_thetae_096.txt.gz
Theta_e
344 343 340 338 338 338 339 333 324 317 317 322 330 343 344 347 345 349 348 337 329 326 324 323 325 327 329 331 332 333 333 334 335 337 338 339 340 340
341 341 340 338 341 342 338 333 331 328 321 328 334 339 347 344 343 348 349 334 330 326 324 323 322 323 325 327 327 328 329 329 329 331 332 334 334 335
344 342 341 344 344 340 338 338 338 337 327 335 337 344 346 344 342 347 346 344 342 326 325 323 320 321 323 323 324 324 325 326 326 327 328 329 330 331
339 340 339 340 340 343 344 340 339 340 336 334 336 337 338 343 341 338 343 341 342 333 323 322 320 319 320 320 320 319 318 318 319 322 324 325 326 329
335 336 335 336 336 335 336 337 337 339 340 337 332 335 335 337 334 336 336 340 341 331 322 323 320 319 317 316 314 313 311 310 310 312 314 317 321 324
329 327 326 326 327 329 330 331 331 331 333 333 333 333 336 338 335 330 330 339 338 342 334 328 322 319 317 315 315 314 310 308 307 307 308 309 310 313
323 321 323 320 315 317 317 321 324 323 322 321 324 329 332 333 330 330 330 334 339 341 342 340 338 336 332 318 324 318 313 310 308 306 306 305 305 307
323 322 322 317 317 311 311 311 316 321 322 322 321 325 336 337 332 332 331 329 329 346 340 343 342 340 341 340 322 315 311 309 309 307 306 305 305 305
325 324 322 318 315 319 313 310 310 309 311 323 324 325 328 337 335 337 335 332 329 339 340 340 344 339 343 333 315 314 309 308 308 307 306 305 304 304
326 326 325 323 322 320 319 319 320 322 324 325 327 328 331 336 340 341 342 338 335 338 340 336 343 338 340 338 311 309 307 305 305 306 306 306 304 303
324 325 325 324 311 303 319 318 319 320 316 310 310 308 304 304 312 332 331 330 329 334 339 338 340 338 337 339 329 310 307 305 304 304 304 304 303 302
324 325 307 316 304 300 318 318 316 318 320 324 327 319 312 325 306 322 333 329 334 333 339 334 337 331 328 334 332 329 329 306 305 304 303 303 302 325
318 319 321 302 300 298 298 318 316 315 314 320 321 320 327 332 331 324 336 338 337 329 336 337 335 332 329 326 329 331 330 321 328 317 302 302 301 308
318 319 321 299 298 298 301 302 297 300 315 316 317 319 326 327 326 329 338 338 343 338 337 338 334 332 329 328 325 326 326 329 329 328 328 307 301 300
319 314 303 298 296 298 295 295 295 314 316 317 319 323 326 327 329 333 336 338 338 337 337 336 336 333 331 324 326 326 323 324 326 326 326 326 327 327
308 315 311 306 303 305 307 309 316 318 318 321 321 325 327 328 328 330 329 333 331 330 334 335 335 334 330 331 330 328 328 322 328 327 326 325 322 309
310 314 314 314 314 315 316 316 318 320 320 323 322 322 323 325 326 330 330 329 329 326 326 332 333 323 316 326 326 323 322 324 325 323 322 305 304 304
310 312 312 313 313 314 315 315 318 316 323 324 321 321 322 324 323 327 329 330 327 326 328 330 326 324 322 314 305 320 326 325 325 326 320 306 304 304
309 310 311 312 313 314 315 316 316 320 324 324 321 321 322 322 320 325 328 328 328 327 328 329 328 325 321 317 310 295 306 324 326 320 312 309 303 302
309 310 311 313 314 314 315 317 318 322 324 323 321 322 323 322 323 327 327 326 326 325 326 328 328 329 325 320 305 297 289 322 322 307 302 296 293 292
308 310 313 314 314 315 316 318 320 322 321 320 321 323 322 324 325 324 325 308 314 325 323 325 324 302 316 317 307 298 296 292 298 310 305 304 304 305
308 310 311 313 314 315 317 319 323 319 321 322 322 323 324 325 322 323 325 324 325 326 326 326 330 327 320 310 301 297 295 296 294 292 293 296 306 310
310 311 311 313 314 315 318 319 324 321 324 324 324 324 327 325 325 326 324 325 327 326 323 316 314 318 313 309 302 300 297 302 303 301 295 292 292 293

GFSNE_sfc_thetae_102.txt.gz
Theta_e
343 341 340 342 341 339 335 334 330 322 324 329 327 332 331 333 338 340 340 337 331 327 325 324 325 326 328 329 331 334 335 337 338 338 339 340 341 342
338 340 341 341 341 341 339 338 336 329 324 329 330 332 338 338 339 340 338 333 331 327 326 325 324 323 324 325 326 328 331 332 332 332 333 334 335 336
335 338 341 342 340 339 340 337 334 332 326 329 332 333 334 334 336 340 339 339 338 329 327 325 322 321 321 322 322 324 328 329 328 328 328 329 330 332
334 336 338 340 340 340 339 335 334 333 329 325 329 331 333 334 336 337 339 340 340 334 326 324 322 319 319 320 319 320 322 324 325 324 324 325 326 329
336 338 337 337 334 335 336 334 332 333 330 327 327 331 332 333 332 334 335 335 338 334 326 324 322 320 318 317 318 319 319 317 315 315 316 318 321 324
336 335 335 335 334 335 336 331 332 329 328 326 326 327 328 330 331 328 327 333 332 336 332 331 325 323 321 318 318 319 315 314 313 309 309 309 310 312
335 334 334 328 326 329 330 326 323 321 320 318 316 317 318 323 324 326 326 328 328 332 331 332 331 329 326 318 322 321 316 313 310 308 307 306 305 306
329 328 318 314 312 310 310 309 315 315 314 314 312 311 314 316 320 325 325 323 321 330 329 327 331 332 332 326 319 317 314 313 311 308 307 307 305 304
326 325 319 319 318 315 310 309 308 308 311 318 317 317 317 319 320 319 320 324 324 329 327 326 329 325 333 335 318 317 312 313 309 307 307 307 305 303
326 326 324 322 321 321 319 317 318 320 314 313 315 317 321 324 326 325 323 323 327 329 329 322 328 325 330 326 316 314 313 313 307 307 307 306 304 303
326 327 326 323 311 310 321 319 318 319 316 309 308 306 301 301 304 311 314 316 316 320 328 325 325 327 330 324 321 314 311 310 305 305 305 305 304 304
325 326 311 321 303 306 320 319 317 318 320 319 318 314 311 315 306 310 317 318 318 318 326 324 323 323 323 329 323 317 313 307 306 305 304 304 302 313
321 322 323 301 300 299 308 322 318 319 315 316 315 314 315 316 319 320 323 323 322 321 327 326 320 322 325 324 327 326 324 313 317 309 304 303 302 304
318 321 320 303 300 299 302 306 304 303 314 312 312 311 312 315 318 326 328 330 331 329 331 327 326 325 324 322 320 325 325 324 324 318 316 305 302 299
318 309 304 303 300 302 299 299 297 310 313 312 311 312 314 318 325 324 327 329 329 330 332 329 328 327 325 323 321 321 320 322 324 314 309 307 307 307
308 311 311 308 307 310 308 302 311 315 314 313 313 315 317 318 321 323 325 325 327 326 329 331 329 328 325 325 324 320 322 319 310 307 306 305 304 304
313 317 316 316 315 315 316 316 315 315 314 314 314 314 318 321 321 325 325 325 322 321 321 316 311 308 303 315 321 322 320 311 309 307 304 299 300 302
312 313 314 315 315 315 316 315 316 313 315 316 316 319 319 320 320 323 325 322 320 321 321 317 316 315 312 304 300 314 321 313 312 310 305 297 294 293
311 312 313 314 314 315 314 315 315 316 317 318 318 321 321 320 318 321 322 321 321 321 322 322 320 318 314 308 301 294 310 314 311 309 307 300 294 293
312 311 311 313 314 315 315 315 315 315 315 317 319 322 322 319 319 320 320 320 320 321 322 324 322 321 315 310 301 298 291 310 304 298 294 291 289 291
313 313 314 315 315 314 313 314 314 314 315 318 322 323 321 320 319 321 319 302 307 320 320 319 312 301 309 308 302 298 297 296 302 299 294 294 294 288
311 311 312 312 312 312 312 312 313 313 316 320 322 321 320 321 320 319 319 318 319 321 316 313 314 315 313 305 299 295 290 290 292 294 295 299 305 300
311 312 310 311 311 311 311 313 313 314 318 322 321 321 320 319 321 321 321 321 322 319 318 319 316 310 305 300 295 296 291 292 293 291 289 292 293 294

GFSNE_sfc_thetae_105.txt.gz
Theta_e
338 337 336 333 332 332 329 323 320 314 317 322 323 327 328 328 329 328 331 334 331 326 324 324 324 325 327 328 329 332 333 336 338 339 340 340 341 342
338 337 332 332 332 334 331 328 327 321 317 322 324 325 326 329 332 334 333 332 329 327 326 325 323 323 324 324 325 326 329 331 332 333 335 335 335 336
330 326 325 325 324 327 333 331 327 324 320 321 324 325 328 329 331 332 334 334 334 327 326 325 322 320 321 321 322 323 325 327 329 329 331 330 330 331
322 319 323 327 323 320 323 330 328 325 322 318 319 323 325 327 328 329 332 337 336 333 326 324 321 319 319 318 318 318 320 322 324 326 326 326 326 328
321 321 323 321 325 328 328 328 327 327 324 320 318 319 323 324 323 328 328 329 332 333 326 323 322 320 319 318 317 317 316 317 317 318 319 322 323 323
324 324 325 323 328 329 331 328 326 323 321 319 315 314 317 319 321 323 322 324 326 332 331 327 324 324 320 319 317 318 316 313 313 314 312 312 311 313
320 321 322 321 327 328 331 326 321 318 316 314 312 312 314 314 317 318 317 320 322 325 326 326 328 329 326 320 322 321 318 317 313 311 309 307 305 306
322 326 329 324 321 317 315 313 314 310 307 305 304 303 305 309 311 312 314 314 314 322 323 322 326 328 331 328 319 315 311 312 311 310 309 307 307 305
317 315 317 317 312 308 307 308 307 308 309 308 306 308 309 312 313 311 311 313 315 320 322 321 325 322 327 333 315 313 310 312 311 308 306 307 306 304
317 315 313 309 309 307 306 307 308 308 307 309 309 310 312 314 315 316 314 314 315 318 323 320 322 321 325 326 315 312 310 310 308 306 308 307 305 303
317 316 316 312 305 306 309 308 309 311 312 307 305 304 305 302 302 304 304 305 307 310 319 319 320 320 325 322 321 313 310 307 307 305 304 304 304 303
316 316 311 313 303 304 312 310 308 309 312 312 311 308 306 308 305 306 307 307 309 310 317 317 316 316 318 324 320 315 313 307 308 305 304 304 302 313
314 316 315 304 300 300 306 311 309 311 310 310 308 307 307 308 309 311 310 312 311 314 319 322 317 319 318 318 322 319 318 310 313 308 302 301 299 305
312 316 315 300 299 299 305 305 302 306 309 306 305 305 305 306 308 312 318 318 320 320 321 324 323 320 318 320 320 322 317 317 316 313 307 302 301 298
311 311 307 299 298 300 300 300 300 308 306 304 304 305 305 308 312 316 317 319 321 327 329 329 327 325 325 321 320 321 320 317 312 308 306 305 305 305
305 309 308 304 303 305 301 301 306 307 306 305 306 308 307 309 311 315 315 321 323 324 318 323 326 325 322 322 321 317 315 310 308 306 304 303 302 298
307 311 308 307 307 307 307 304 305 308 307 307 307 307 307 309 313 314 316 323 321 319 314 310 309 308 306 319 319 315 310 307 306 303 301 298 295 292
306 307 308 308 308 309 309 308 307 307 308 308 308 309 309 312 313 314 317 321 319 318 314 313 312 315 315 310 307 313 310 307 306 302 300 292 288 290
308 308 310 310 310 310 310 309 308 309 310 309 308 309 313 314 313 313 317 319 318 319 319 317 316 317 313 308 302 299 311 310 307 302 301 295 288 290
310 310 309 309 309 309 308 308 308 308 307 307 307 313 314 313 312 314 317 318 317 317 318 318 319 317 313 309 301 301 295 309 302 294 291 291 290 292
306 305 306 306 307 308 308 307 307 306 307 308 311 315 315 314 313 316 318 302 307 318 315 317 318 298 305 308 303 298 298 296 300 296 291 290 290 288
304 309 309 306 306 305 305 304 304 305 305 306 313 315 315 316 315 316 318 317 315 317 314 309 311 314 312 307 299 293 292 295 294 294 294 297 300 291
305 306 308 305 304 304 303 303 304 305 306 310 315 316 316 316 317 318 318 318 318 317 311 312 310 307 305 302 295 293 289 289 290 290 289 293 295 295

GFSNE_sfc_thetae_108.txt.gz
Theta_e
325 325 324 324 328 333 328 324 324 317 318 320 322 326 330 329 331 330 328 327 328 326 323 322 323 325 326 327 328 329 330 332 335 338 338 341 342 342
322 324 323 322 328 332 330 328 325 321 316 322 323 324 326 328 329 328 328 329 327 325 325 323 322 322 322 323 324 325 326 327 328 330 332 334 336 337
322 325 327 325 324 323 325 324 325 324 320 325 321 324 323 323 327 330 331 331 331 326 326 324 322 321 320 320 320 321 323 324 324 326 328 329 331 332
319 322 325 324 319 318 320 321 320 322 322 321 320 321 322 324 325 325 328 332 332 331 326 324 321 319 318 317 317 317 317 318 320 322 324 326 327 329
323 324 323 323 320 320 318 319 320 321 323 323 321 319 320 319 317 319 323 326 328 330 324 322 321 320 318 316 315 314 313 312 312 315 319 322 324 325
315 319 321 322 322 321 320 319 319 320 325 322 318 314 313 314 314 315 319 320 323 328 327 325 323 321 318 318 317 316 311 310 309 310 312 315 312 316
313 314 314 322 321 320 321 321 322 323 323 320 315 314 313 313 314 314 313 314 316 319 321 322 324 324 325 318 321 320 315 310 309 310 307 307 308 309
314 314 317 320 319 316 318 318 325 322 315 312 309 308 306 307 309 309 310 309 308 317 318 318 322 322 325 326 319 314 312 310 309 309 308 308 307 305
314 312 315 321 318 321 313 313 313 311 314 309 304 304 305 308 309 307 308 308 309 315 316 314 318 319 322 326 313 309 308 307 306 306 305 306 305 304
314 314 318 320 321 321 316 312 310 310 308 309 307 309 310 311 312 311 311 308 308 311 315 313 316 317 320 324 312 308 305 305 305 304 306 306 304 303
316 318 316 315 303 303 310 308 307 307 306 305 305 303 303 303 308 304 302 301 301 305 312 312 313 315 318 321 319 308 305 303 304 303 304 304 303 303
314 316 308 310 300 301 309 308 307 308 311 307 305 303 303 305 301 305 304 303 303 305 312 313 312 312 311 322 316 314 309 303 302 301 302 302 303 313
311 314 311 300 298 299 303 310 308 308 307 308 307 306 305 305 306 306 307 307 305 308 314 318 315 317 316 315 319 318 316 312 309 304 299 299 299 309
310 316 312 298 298 299 305 301 299 306 308 306 304 303 303 303 305 306 310 311 313 314 316 317 315 315 315 315 318 317 316 315 312 307 306 302 299 295
312 311 303 298 297 298 301 299 300 308 306 304 303 302 303 305 306 310 313 315 316 319 322 322 323 319 320 319 318 317 315 310 311 306 304 302 303 305
303 305 305 303 301 302 302 302 309 308 306 305 304 303 305 305 306 309 311 313 315 320 316 313 327 326 322 322 321 316 310 306 306 303 300 295 293 293
304 306 306 306 304 305 305 304 305 306 306 305 304 304 304 305 306 310 312 313 316 318 312 311 312 312 311 323 317 312 307 305 305 301 294 289 289 290
307 305 305 306 306 305 305 304 304 305 306 306 304 304 305 305 307 310 312 313 317 315 313 312 314 314 314 312 311 308 307 303 303 298 293 287 287 290
306 305 306 306 306 307 306 306 305 306 307 306 305 305 306 307 309 310 311 314 318 317 315 315 316 317 313 304 305 301 306 302 299 295 294 288 285 289
306 306 307 308 308 308 307 307 306 307 306 306 306 306 308 310 309 309 311 313 315 316 317 316 317 317 313 308 303 302 296 303 298 291 289 288 289 290
306 308 308 308 308 309 308 307 307 305 304 304 305 308 310 310 309 309 310 300 305 315 314 314 317 298 308 310 303 298 298 295 297 292 288 287 288 288
303 305 305 305 307 306 304 303 302 302 302 303 303 307 311 312 310 310 312 315 314 316 314 307 307 311 315 311 300 295 295 294 294 294 294 294 292 288
301 303 305 304 303 303 302 302 302 302 302 303 305 308 311 311 312 314 315 317 317 316 312 310 311 310 307 303 297 295 294 294 292 290 291 295 296 296

GFSNE_sfc_thetae_111.txt.gz
Theta_e
327 328 329 328 323 325 323 321 319 314 318 323 324 328 333 331 334 334 333 329 327 323 321 322 323 324 325 326 327 329 330 331 332 335 337 340 341 343
323 320 320 321 322 322 323 326 326 323 319 322 323 325 327 330 331 330 328 327 325 324 323 322 321 321 322 322 323 324 326 326 326 328 331 332 335 336
316 319 320 322 320 321 325 324 326 325 320 320 323 325 325 325 325 327 327 326 327 324 324 323 320 319 319 319 320 321 322 323 323 324 326 327 329 332
315 316 317 323 323 325 323 321 320 322 321 318 319 321 321 322 322 323 325 330 329 328 324 322 320 319 318 317 317 317 316 316 318 320 322 323 326 329
313 316 319 321 322 318 319 319 319 320 319 318 318 322 323 320 321 317 320 320 325 328 322 321 320 319 318 316 315 314 312 310 310 312 315 319 322 325
313 313 314 317 319 319 318 318 318 317 318 317 318 319 318 319 315 313 314 317 319 325 324 323 321 320 317 315 317 317 312 309 307 308 309 311 313 316
311 312 313 314 316 318 320 320 319 317 317 316 316 318 313 314 313 315 314 311 313 315 315 318 320 321 321 318 320 319 313 310 307 307 307 306 306 308
310 311 312 314 314 312 312 316 318 316 317 317 317 317 316 313 312 310 309 307 305 314 315 314 316 315 319 321 317 313 311 310 306 306 306 305 305 305
311 312 313 315 314 314 312 311 314 312 315 321 318 313 310 310 310 308 307 306 306 310 311 307 311 312 317 321 312 308 307 306 305 305 305 304 303 302
311 312 313 314 315 314 314 315 317 320 319 320 320 313 311 311 311 309 308 306 304 306 311 308 309 311 315 320 310 307 304 304 305 304 304 304 302 301
311 314 314 314 310 304 315 315 317 315 311 308 308 304 302 303 308 307 302 301 299 302 308 310 310 311 317 321 316 306 303 304 303 304 304 303 302 301
313 314 308 307 302 303 314 313 309 309 310 306 306 303 303 303 303 306 303 301 300 302 308 312 310 310 312 319 316 311 307 302 301 300 302 302 302 314
311 312 314 301 300 301 305 311 309 309 306 308 306 306 306 306 304 303 304 304 302 304 309 314 312 314 316 316 316 315 312 309 306 303 298 298 302 307
308 312 313 298 299 299 304 298 300 305 309 306 305 303 302 302 303 304 305 306 308 310 311 316 312 312 311 312 315 314 315 312 308 306 304 299 296 295
306 308 302 295 297 298 297 297 302 309 306 304 303 302 302 303 304 305 310 312 312 313 316 319 317 313 313 313 316 313 309 308 307 303 300 299 301 301
304 305 304 299 299 301 301 303 308 308 307 305 304 302 303 303 304 305 306 309 309 315 315 314 316 321 317 318 319 312 308 304 302 297 293 292 292 292
304 305 304 304 304 304 304 306 307 306 306 304 304 302 302 303 303 305 308 309 314 317 311 311 313 317 313 321 314 310 305 302 298 293 291 289 290 291
303 304 302 306 306 306 304 303 304 304 305 305 304 303 303 302 303 306 309 310 316 313 312 312 314 315 314 311 310 306 304 300 296 292 291 288 288 290
305 304 304 306 305 307 306 304 303 305 305 305 304 303 304 304 304 307 308 311 316 315 314 314 315 316 311 302 307 301 302 296 292 291 292 290 288 289
308 305 305 306 306 306 307 305 305 305 304 304 304 305 304 305 307 307 308 310 311 313 315 315 315 316 309 306 301 300 295 296 293 288 288 289 288 290
306 307 306 307 308 307 307 306 306 305 304 304 304 304 305 306 307 307 307 300 302 312 314 315 315 297 307 308 301 296 295 294 294 290 287 287 286 288
302 306 307 308 308 308 308 306 305 303 302 302 301 303 306 308 308 307 308 311 312 314 313 309 308 311 312 307 298 293 290 291 293 295 294 293 290 287
300 304 305 306 307 306 304 302 301 301 301 302 304 304 307 307 309 309 310 310 314 315 310 308 310 309 307 302 296 295 290 289 291 292 292 295 296 295

GFSNE_sfc_thetae_114.txt.gz
Theta_e
328 326 326 329 329 329 327 324 321 316 318 323 325 332 334 339 338 339 340 332 328 324 323 323 323 324 325 326 327 329 330 331 332 334 336 337 339 341
322 324 325 327 328 329 328 327 325 321 317 325 327 332 333 333 335 337 337 329 326 325 322 321 321 321 322 322 323 324 325 326 327 327 329 331 332 335
318 319 320 322 322 323 325 325 324 324 319 323 329 331 330 328 332 333 332 333 333 322 322 321 319 319 319 319 320 321 322 323 323 324 325 326 328 330
315 316 317 321 322 325 324 323 324 327 324 320 326 326 326 326 328 330 331 333 333 326 322 321 319 318 317 316 316 316 316 317 317 318 320 322 324 327
315 315 316 319 319 322 323 322 324 325 325 323 323 326 327 328 326 329 326 328 331 328 322 320 319 318 318 316 315 313 312 312 309 310 313 316 320 323
315 315 315 315 316 318 321 322 322 320 320 321 319 321 324 326 326 325 320 325 326 328 327 323 320 318 316 315 315 317 313 309 308 307 307 308 311 315
315 315 316 316 315 315 317 320 320 319 319 318 316 317 319 319 320 322 322 322 322 324 324 328 331 330 328 318 321 320 315 311 309 307 306 305 306 308
312 313 314 314 314 311 312 314 318 319 315 315 316 315 317 321 318 318 319 315 314 320 324 325 325 324 324 327 316 312 313 311 308 306 305 304 304 304
311 311 311 313 313 315 311 309 310 309 312 318 315 317 319 321 319 317 316 316 316 319 320 316 319 319 323 324 310 309 309 306 305 304 304 303 302 301
309 310 311 312 314 313 314 314 315 315 315 314 318 320 322 319 320 320 317 315 314 314 318 313 319 321 324 324 307 306 304 303 303 303 304 304 301 300
308 309 311 312 308 303 311 312 313 315 312 308 309 308 305 305 310 313 310 309 307 311 314 317 319 322 323 322 317 304 303 302 302 303 304 302 299 299
305 308 305 309 304 301 306 309 309 312 314 314 315 306 306 306 305 317 311 308 309 310 315 319 319 321 319 320 316 312 307 301 300 301 302 301 302 306
306 308 312 303 299 298 298 314 313 315 310 313 311 312 310 311 311 312 313 313 312 312 315 321 321 322 322 318 316 313 310 308 305 302 299 300 301 303
306 310 309 301 299 299 302 299 300 308 312 310 310 309 309 309 311 311 312 312 315 318 319 324 322 321 321 320 314 313 312 309 307 303 301 298 298 297
307 305 298 297 297 302 297 299 301 311 310 309 310 309 309 310 311 312 313 313 314 315 316 320 321 322 322 320 314 311 309 306 304 301 299 299 302 302
304 306 304 301 297 302 302 304 312 312 311 311 309 308 308 309 312 314 315 316 317 319 321 320 319 320 319 323 320 310 307 303 298 295 294 293 294 295
305 307 306 304 303 306 307 311 311 312 311 309 308 308 308 311 311 312 314 317 317 319 317 315 315 316 311 320 318 312 302 298 295 294 293 291 291 292
304 304 305 305 305 307 309 309 311 309 311 311 310 309 309 310 311 313 315 317 317 317 316 314 314 312 311 310 309 305 301 295 295 295 293 289 289 292
304 304 306 308 308 310 310 310 310 312 312 312 311 311 311 311 309 312 315 317 319 317 318 315 315 316 310 303 305 300 296 293 293 292 293 291 288 291
304 305 307 309 310 310 310 310 310 310 311 310 311 312 312 312 312 314 316 317 318 316 317 317 317 317 308 305 298 295 293 294 292 290 289 289 289 290
301 305 309 309 311 312 312 312 311 310 310 311 311 312 312 313 314 316 315 299 305 318 317 315 316 297 305 304 297 293 292 293 295 291 289 289 289 290
300 303 310 311 311 312 311 311 310 310 311 311 311 312 313 315 315 316 316 315 314 315 318 312 310 310 311 304 294 290 289 291 294 295 295 294 293 289
300 302 310 311 312 312 311 311 311 310 309 309 310 311 312 314 316 317 317 317 317 316 311 308 311 309 305 300 292 292 288 289 291 294 296 295 295 295

GFSNE_sfc_thetae_117.txt.gz
Theta_e
329 331 328 329 332 333 334 333 324 318 321 329 330 338 336 336 339 342 342 336 329 325 324 324 325 326 327 327 328 329 329 331 333 335 337 339 339 341
323 326 327 324 327 327 329 333 330 324 319 326 330 336 338 336 337 340 339 334 327 325 324 322 322 322 323 323 324 325 327 327 327 328 330 331 332 334
324 324 324 327 322 323 325 326 326 328 320 325 330 335 336 336 338 340 340 342 340 324 324 322 320 319 320 321 321 322 323 324 324 324 325 326 327 329
320 322 322 321 325 325 323 325 325 326 326 322 328 330 334 337 337 338 336 336 340 328 322 321 318 318 317 317 317 318 318 318 319 320 321 322 323 325
321 320 320 321 322 320 322 320 320 324 328 323 322 329 331 334 335 337 335 335 339 331 321 320 319 320 318 317 315 315 313 312 311 312 314 316 318 321
322 322 319 318 319 320 319 319 320 319 321 320 320 325 330 333 330 329 328 331 330 332 330 327 324 320 318 316 315 315 312 309 308 308 308 308 309 312
322 320 321 320 316 317 315 317 319 316 316 317 318 320 323 323 323 326 325 328 329 332 333 334 334 334 333 318 325 318 315 311 309 309 307 305 304 306
319 320 320 317 316 312 312 312 314 315 317 315 316 315 318 323 324 323 325 323 322 332 328 327 332 331 332 333 319 313 313 310 310 309 307 305 304 305
319 319 318 316 315 316 311 309 309 308 310 319 319 319 319 322 323 321 326 326 326 327 325 325 329 324 325 322 312 311 307 308 307 305 303 303 302 301
316 316 317 316 314 314 314 314 315 317 318 317 319 322 323 325 325 324 322 324 320 321 325 316 322 319 328 330 306 305 306 304 303 303 303 302 301 300
313 314 312 312 306 301 312 312 314 315 314 308 309 307 305 304 315 317 314 313 313 314 319 317 321 324 328 329 323 304 303 301 302 302 302 300 299 299
308 309 304 306 301 299 310 312 311 313 312 314 314 310 309 315 307 319 317 313 314 312 319 316 321 324 320 325 318 316 311 301 300 301 300 300 301 309
304 305 308 301 298 297 297 311 310 311 309 315 315 316 319 319 313 317 317 314 315 314 321 322 322 324 323 318 317 316 314 310 307 305 300 300 300 303
303 306 309 301 297 296 297 299 297 300 308 311 312 314 315 314 319 315 317 321 324 323 324 328 322 321 321 319 315 313 311 310 307 303 302 299 297 297
305 305 300 297 297 300 299 296 297 312 311 312 312 313 315 318 315 318 319 321 321 321 323 328 326 325 323 320 315 313 309 305 303 302 303 304 302 300
302 305 305 301 297 299 303 309 313 314 314 316 317 316 316 316 316 318 317 319 320 322 326 327 326 326 322 323 323 313 310 304 298 297 296 297 298 301
306 311 310 307 306 309 312 314 314 314 313 313 312 313 314 316 315 318 320 321 320 321 321 320 319 318 311 320 320 314 305 298 296 295 295 293 294 296
305 307 304 307 309 312 312 314 314 312 315 316 316 315 315 315 316 318 321 322 321 322 321 316 313 312 311 309 308 310 305 298 296 296 296 293 291 293
305 306 306 307 310 312 314 312 312 317 319 317 316 316 317 317 316 319 321 322 322 323 321 318 314 316 310 302 304 299 299 298 295 293 295 295 292 292
307 305 307 309 313 314 314 316 317 317 318 319 319 319 319 318 318 320 321 321 322 321 320 321 317 321 315 307 296 294 294 295 293 291 290 290 290 291
302 303 305 312 314 315 318 318 319 319 319 320 320 320 320 319 320 322 321 303 310 322 320 320 318 297 305 302 294 292 293 294 295 292 290 290 291 293
302 303 304 314 316 315 317 317 317 318 320 320 320 319 320 320 319 321 322 320 321 324 322 310 310 311 310 300 292 289 290 292 294 295 295 294 293 291
303 302 304 316 316 317 318 318 319 319 319 319 318 318 319 319 321 321 323 323 324 322 315 310 311 308 301 297 292 291 290 290 292 294 295 294 295 296

GFSNE_sfc_thetae_123.txt.gz
Theta_e
334 338 331 325 324 322 321 319 317 312 314 322 322 336 334 336 338 337 337 337 331 326 325 325 325 327 330 333 334 336 337 337 339 342 343 343 343 343
330 333 335 328 329 327 325 323 322 320 315 319 320 330 336 333 333 337 340 332 330 327 326 325 323 323 325 327 328 330 331 332 332 333 334 335 336 337
333 332 332 334 327 326 326 325 323 323 318 320 324 329 334 333 332 340 338 341 338 328 325 324 321 321 322 323 324 325 327 327 326 327 328 329 330 332
331 332 330 330 331 331 327 327 324 326 322 321 324 324 328 334 335 338 335 334 337 332 324 323 321 319 319 319 319 321 321 321 322 324 325 325 326 328
332 331 330 330 328 328 329 327 326 326 326 322 321 322 322 324 326 331 331 337 338 334 324 323 321 319 318 318 317 317 316 315 315 316 318 320 321 322
331 331 331 329 329 329 327 327 327 325 325 322 321 320 320 324 325 325 325 331 331 336 330 330 326 320 318 318 317 319 316 313 310 310 310 310 311 313
328 328 329 328 323 324 325 326 325 324 322 320 317 317 316 316 319 317 322 325 330 335 338 339 340 338 334 319 326 321 315 311 310 309 308 306 306 307
319 321 324 320 321 314 314 314 319 322 321 317 317 316 319 317 318 317 313 319 318 330 335 328 335 340 341 339 323 318 312 311 309 308 307 307 306 305
318 318 318 315 316 319 315 311 312 310 311 319 317 317 317 320 320 319 315 321 321 325 330 326 334 334 338 325 313 310 309 308 309 308 308 307 306 304
312 313 314 316 318 317 318 318 318 322 319 314 315 319 321 323 323 320 319 320 323 323 329 322 332 335 330 323 307 308 308 306 304 305 306 303 300 299
308 310 309 309 306 303 311 314 316 319 314 308 308 306 305 304 308 317 312 311 312 319 325 326 326 330 330 326 318 304 303 303 302 303 302 301 299 300
301 303 303 303 302 299 311 313 314 315 316 315 311 305 303 311 303 314 315 311 311 316 324 318 318 321 319 325 325 317 319 301 300 300 301 301 302 310
299 301 305 300 297 297 298 311 312 311 310 312 312 313 314 315 318 320 319 317 316 317 321 322 315 318 317 318 319 321 319 312 307 303 299 299 301 307
300 303 306 298 297 297 298 299 297 299 309 309 310 311 313 314 316 321 323 322 323 325 325 319 315 315 317 318 315 316 314 311 309 307 304 300 298 298
301 302 299 297 295 297 295 296 296 309 309 309 309 310 312 315 320 323 324 325 324 325 324 321 319 319 323 322 320 315 311 307 306 305 305 304 304 305
300 302 301 300 300 302 303 305 310 311 308 306 308 311 314 315 317 316 320 322 319 316 319 319 317 321 322 322 325 318 313 305 303 302 301 301 302 302
294 296 299 304 307 308 309 310 310 309 307 306 305 306 308 313 314 319 320 317 315 314 316 317 319 322 316 313 322 319 310 304 301 299 298 296 295 296
293 295 304 306 305 309 307 309 311 310 312 313 308 307 308 309 312 315 315 314 314 316 319 320 318 318 315 311 306 314 310 302 301 300 298 295 292 295
296 305 305 307 307 308 309 310 310 312 314 310 309 310 312 314 311 313 314 316 317 321 321 319 318 317 312 308 305 299 306 301 300 298 299 297 293 293
302 304 304 307 309 310 310 311 312 314 313 315 316 317 318 316 315 315 316 313 315 320 321 320 317 317 313 311 300 296 294 302 299 293 292 292 291 292
305 304 308 309 311 313 313 314 315 315 316 316 318 319 318 316 314 315 315 304 311 322 321 319 317 301 312 308 297 293 294 295 299 296 294 292 291 292
303 306 308 311 314 315 314 317 319 319 319 317 320 322 322 320 318 319 320 319 322 323 319 313 317 318 316 310 297 292 291 294 295 296 296 296 296 291
304 309 310 311 314 314 319 320 320 318 321 321 321 323 323 321 322 319 320 318 322 320 316 312 309 312 308 301 292 292 291 292 293 294 295 295 296 296

GFSNE_sfc_thetae_129.txt.gz
Theta_e
323 322 322 323 321 318 315 312 309 302 302 308 309 314 316 319 322 320 320 328 329 326 324 324 325 325 325 326 327 329 331 332 335 340 343 344 344 345
324 322 322 322 321 319 318 316 312 309 306 309 311 312 320 322 321 317 317 324 323 323 324 323 322 322 322 322 323 325 327 328 330 334 338 338 340 340
324 322 322 321 321 320 317 316 314 312 311 311 312 314 315 315 316 318 321 318 321 323 322 321 320 319 320 320 320 322 323 325 328 330 332 333 335 336
324 324 323 325 320 321 320 318 317 315 312 313 313 312 314 315 317 314 316 317 316 321 320 320 319 319 319 318 317 317 317 319 322 326 328 329 330 331
323 323 323 322 321 321 318 318 317 319 316 314 314 314 314 314 313 312 313 315 321 324 321 321 322 320 318 317 316 316 314 314 316 318 323 324 324 325
315 317 318 319 320 320 319 318 319 317 318 316 316 315 315 315 312 313 309 311 312 318 322 322 320 321 319 318 317 317 314 311 312 313 315 316 316 320
309 310 310 313 316 314 313 313 314 315 315 314 314 314 313 310 309 312 309 308 308 311 315 315 318 320 322 322 321 319 315 311 310 311 312 310 312 311
305 307 309 313 312 310 309 310 310 309 308 310 312 312 312 309 309 307 306 305 303 308 312 310 313 314 320 324 311 311 311 311 310 309 309 310 308 306
302 303 305 309 308 308 308 307 307 307 308 308 307 308 310 312 309 307 307 305 305 307 307 305 309 310 317 320 308 310 312 308 308 307 307 306 305 304
299 300 301 303 303 305 306 306 306 307 307 309 309 309 311 313 312 314 313 313 310 309 309 304 307 310 317 311 306 307 309 306 308 306 306 305 304 303
297 298 300 300 299 298 300 300 301 302 305 304 303 303 302 303 308 315 311 310 308 306 305 306 308 311 315 313 310 304 302 303 304 306 304 301 299 299
296 297 299 299 297 296 298 299 298 300 303 305 309 308 303 305 303 311 313 309 305 302 308 306 305 310 309 315 308 309 306 301 300 301 302 300 301 308
296 296 297 297 295 295 295 298 298 300 302 305 307 307 309 309 309 308 311 311 307 304 309 309 308 309 311 313 317 313 309 306 303 302 300 301 303 304
295 297 297 295 295 294 295 295 294 296 300 301 300 300 301 307 309 308 310 313 312 310 309 309 307 310 309 311 312 310 309 307 306 303 303 300 299 298
298 297 295 294 293 294 295 295 295 296 297 298 299 300 301 304 306 310 311 313 313 314 313 312 313 311 311 311 312 309 306 306 305 303 304 304 303 303
296 295 295 294 294 294 295 296 297 299 299 298 299 301 302 302 303 305 308 309 308 309 313 313 313 316 312 315 315 309 306 302 303 302 301 300 301 303
292 292 291 293 294 295 298 300 303 304 302 301 300 300 301 303 304 304 306 306 306 306 310 310 310 308 304 306 313 309 303 301 301 299 298 295 296 297
291 290 291 292 294 296 298 302 305 305 307 305 304 303 303 304 305 306 309 308 309 310 312 309 306 307 306 306 304 305 302 299 300 299 298 295 294 296
289 290 291 294 296 299 303 305 306 308 309 308 307 306 305 306 303 304 305 310 310 311 312 310 310 310 307 304 303 299 301 299 299 297 297 295 293 293
292 293 295 297 301 304 306 309 309 309 311 310 309 309 307 306 305 303 303 308 310 312 310 309 311 311 308 304 299 297 295 300 298 293 290 291 291 293
297 298 302 304 306 309 309 310 310 311 309 311 308 308 307 307 305 305 305 299 303 311 310 309 309 296 301 300 296 293 295 295 298 294 292 292 290 291
300 301 304 306 309 310 311 313 313 311 313 313 312 308 309 309 307 308 309 308 310 312 309 305 306 308 309 302 294 293 292 294 296 296 296 296 293 290
303 304 307 308 309 311 313 312 312 312 312 314 311 310 311 311 311 311 311 312 313 311 310 306 302 301 299 297 293 292 291 292 294 293 293 295 296 295

GFSNE_sfc_thetae_132.txt.gz
Theta_e
320 319 318 318 317 316 313 310 307 303 303 307 307 311 312 319 319 318 316 321 324 323 320 321 322 324 325 325 326 327 328 329 332 334 337 339 341 343
321 320 320 321 320 319 317 314 310 310 305 307 309 310 312 319 321 319 315 322 322 320 319 320 320 321 321 322 322 323 324 325 326 328 331 334 336 337
321 321 321 320 319 319 317 316 313 311 311 312 310 312 313 314 315 316 317 317 315 318 320 319 317 317 317 318 318 320 321 322 323 325 326 329 331 333
322 321 321 325 319 319 319 316 315 314 313 314 312 310 311 313 314 314 317 317 314 318 319 318 317 316 316 316 315 316 315 316 317 320 322 324 327 331
316 316 317 317 317 318 318 318 319 319 314 314 315 312 312 313 313 312 312 311 316 322 318 319 318 318 317 315 315 314 313 310 311 313 317 321 323 326
310 310 310 309 309 310 311 313 315 315 315 314 315 315 312 312 311 312 311 309 311 315 318 318 318 318 317 316 317 318 314 310 308 309 311 312 313 317
305 307 308 310 314 312 310 307 307 307 308 310 311 310 310 308 308 312 308 309 308 310 313 313 313 312 312 315 320 316 311 310 308 308 308 307 307 312
300 302 304 308 308 309 309 310 308 305 306 307 305 306 308 308 308 308 308 304 303 306 310 307 311 308 311 314 311 307 307 308 308 307 307 306 306 310
298 299 300 303 304 304 305 306 306 306 307 305 302 303 304 307 309 309 305 304 303 305 307 304 306 306 310 316 307 306 307 306 306 305 305 305 306 304
296 296 296 297 299 301 301 301 302 303 303 305 305 305 307 309 311 310 309 307 306 307 308 305 307 305 310 312 305 306 304 305 304 304 304 304 304 302
296 296 297 296 297 296 298 298 299 300 302 302 301 300 299 299 304 308 307 308 307 305 307 310 305 306 308 310 309 303 301 303 305 304 304 303 302 299
295 296 298 297 295 295 296 297 297 298 299 300 302 303 302 303 301 303 306 305 308 307 307 306 304 307 304 314 309 309 306 301 300 302 304 303 300 309
295 296 297 296 294 294 294 297 296 298 299 299 300 302 306 309 308 309 308 310 309 309 309 310 304 306 307 307 314 311 309 305 304 302 300 301 302 305
295 297 297 295 294 294 294 294 294 295 297 297 298 299 300 302 304 308 310 311 313 313 310 310 307 306 306 308 311 309 308 307 306 304 303 300 299 298
297 296 295 293 293 294 294 294 294 295 295 295 296 297 299 301 302 303 307 310 312 312 311 309 310 307 309 308 309 308 306 305 305 304 304 304 303 303
295 294 294 293 293 294 294 295 295 294 294 296 296 298 299 298 299 300 301 308 309 309 312 312 312 310 308 311 311 308 306 302 303 302 301 300 301 303
293 292 291 291 291 293 294 296 298 299 299 299 299 300 299 298 299 300 301 302 304 304 307 310 310 307 304 308 311 309 303 302 301 299 299 296 296 297
291 290 290 291 291 293 295 296 299 301 303 304 303 302 301 300 299 301 302 302 302 303 306 307 306 306 306 305 305 305 303 300 300 299 299 296 294 296
290 291 291 292 293 295 297 298 299 303 307 307 306 304 303 303 301 303 305 306 304 306 309 309 308 308 306 303 302 299 300 299 299 296 297 296 293 292
292 293 294 296 298 300 302 305 308 309 310 310 309 307 305 304 304 304 303 304 308 309 309 310 309 309 305 302 298 297 294 300 298 293 291 291 291 294
296 298 300 302 305 307 310 311 310 310 310 309 308 308 306 306 305 305 302 296 302 309 309 309 310 297 302 302 297 294 294 295 298 294 292 292 291 292
301 303 304 306 308 310 311 311 311 310 312 307 307 308 308 307 306 303 303 304 307 311 309 304 304 306 307 301 294 291 291 294 296 296 296 296 294 291
300 304 307 308 311 312 312 311 311 310 311 311 310 308 306 305 307 308 308 309 311 308 307 304 301 300 298 297 293 292 291 292 294 293 292 295 296 296

GFSNE_sfc_thetae_135.txt.gz
Theta_e
321 320 319 318 317 315 311 309 307 302 302 306 306 310 311 311 319 321 318 320 322 320 320 319 319 321 323 324 324 325 326 327 329 331 333 336 338 340
320 320 318 320 319 319 317 313 311 310 308 308 309 309 311 314 317 320 317 321 320 320 319 318 317 318 319 320 321 321 322 323 324 325 327 329 332 334
324 323 322 322 319 318 318 317 314 312 310 313 311 313 311 312 314 317 318 315 316 318 318 317 316 316 316 316 317 318 320 320 321 323 324 325 326 329
319 319 320 322 317 317 315 315 314 315 314 314 312 310 310 313 312 312 315 318 316 318 317 316 316 316 316 315 314 315 314 315 316 318 319 320 322 325
310 309 309 309 307 309 311 313 314 317 313 312 314 312 313 312 312 312 312 313 314 319 317 316 316 317 315 315 313 313 312 309 309 310 314 316 319 321
306 307 308 307 306 306 306 306 308 309 310 311 313 314 313 314 311 311 313 309 311 315 317 315 316 317 316 313 314 316 311 309 307 308 308 309 310 314
301 303 304 307 310 309 307 305 304 303 304 305 306 306 307 308 309 310 309 311 308 309 308 310 312 312 311 311 315 314 309 306 306 306 307 306 306 307
296 299 301 304 304 307 308 308 307 302 300 301 302 300 301 305 306 308 307 304 305 308 306 308 311 310 309 310 310 310 306 306 306 307 306 306 305 305
294 295 296 299 301 300 302 303 304 304 305 303 301 301 301 302 303 304 306 307 307 307 306 305 304 306 308 311 308 305 305 305 305 305 305 304 304 303
293 294 294 295 296 297 297 298 299 301 302 303 304 304 304 304 305 305 306 306 306 305 305 304 305 306 307 309 307 306 303 302 303 304 306 304 304 304
296 297 296 296 297 296 296 295 295 297 301 301 300 299 297 297 300 304 304 303 302 306 306 305 308 304 306 308 309 304 301 301 302 306 306 305 302 301
296 296 297 296 295 294 294 293 294 296 297 298 299 300 299 301 300 301 300 298 300 302 308 307 308 307 305 313 309 309 308 303 301 301 304 303 301 308
294 295 296 296 294 293 294 296 295 297 298 298 297 298 300 301 304 308 304 304 303 303 309 311 307 307 307 308 311 310 310 307 307 305 301 302 303 307
294 295 295 295 294 293 294 294 293 295 296 296 296 296 296 298 302 306 308 308 310 309 313 312 308 308 308 308 306 309 308 307 306 305 304 299 298 299
295 295 294 293 293 293 293 293 293 293 294 293 294 294 296 298 301 303 305 307 308 310 313 312 311 310 309 307 306 308 305 305 305 304 305 304 303 304
296 295 294 293 293 293 292 292 292 294 294 294 294 296 297 297 297 299 300 302 307 308 311 311 312 311 309 310 308 307 307 303 304 303 302 300 300 302
293 293 292 292 291 292 293 293 294 296 296 296 295 296 298 298 298 297 298 298 300 303 305 309 310 309 305 309 308 309 304 302 302 300 300 297 297 297
291 291 291 292 292 293 295 296 298 298 298 299 299 299 299 299 298 298 299 298 299 302 305 306 305 305 305 304 303 305 303 300 300 300 299 297 295 295
290 292 293 294 295 296 297 297 298 299 302 302 302 302 302 302 298 299 300 301 301 300 303 306 306 306 304 302 302 298 301 300 299 296 296 295 293 293
293 295 296 297 298 299 301 304 310 310 308 306 305 306 304 303 301 301 302 302 303 302 304 308 306 306 305 303 298 297 293 300 297 293 291 291 291 294
298 299 302 303 305 307 310 311 312 309 306 308 308 306 304 304 303 304 302 296 301 308 306 307 310 297 302 302 297 294 294 295 298 295 292 292 292 292
297 299 304 305 303 303 305 307 311 311 308 308 307 306 306 306 305 304 304 304 306 308 308 302 305 306 306 300 294 291 291 294 295 295 295 296 295 292
301 302 300 299 299 299 299 300 304 311 310 307 306 306 303 302 302 304 305 307 309 307 305 302 301 300 298 296 292 292 291 292 293 292 292 295 296 296

GFSNE_sfc_thetae_138.txt.gz
Theta_e
327 327 324 324 322 320 317 316 315 309 309 315 314 323 320 320 321 325 329 327 323 320 318 319 319 320 321 322 323 323 325 326 327 329 331 333 335 337
325 324 324 323 323 322 320 318 316 315 312 316 317 319 322 320 322 325 326 323 321 319 319 319 318 317 318 319 320 321 322 323 323 324 326 328 329 332
324 324 324 324 324 324 323 322 320 316 313 320 319 324 322 323 324 324 324 325 324 318 319 318 316 315 316 317 317 319 320 320 321 321 323 324 326 327
318 319 319 320 318 319 320 318 318 320 318 315 321 319 319 324 323 323 321 321 323 321 318 317 315 314 314 315 315 315 314 315 315 316 318 318 320 322
312 311 310 312 311 311 313 314 316 318 319 315 315 319 319 320 321 321 320 322 321 322 317 316 315 315 315 314 313 312 311 309 308 310 311 314 317 318
306 307 308 308 309 310 310 311 311 310 312 311 311 312 315 319 319 318 319 321 319 321 319 317 316 316 315 314 314 313 310 306 306 306 306 307 308 311
302 302 304 306 308 309 307 307 308 307 307 307 308 309 311 312 313 315 315 316 319 318 319 320 322 322 321 316 318 315 311 307 305 305 306 305 304 306
297 298 300 301 302 303 305 306 307 306 305 306 306 306 308 309 312 313 313 311 308 318 316 316 320 320 320 320 313 309 308 305 306 307 307 305 305 305
295 295 296 298 300 300 300 301 302 303 304 304 302 303 304 307 308 308 308 307 306 310 311 310 317 314 319 320 307 306 304 304 305 305 304 304 303 302
296 296 296 297 297 298 298 298 299 300 302 303 305 305 307 308 309 308 307 308 309 310 312 307 313 312 318 317 304 305 305 303 302 303 303 303 301 301
297 298 297 297 297 296 297 296 297 298 300 300 300 299 297 297 300 302 301 301 300 305 310 311 312 313 316 318 318 306 303 301 301 302 302 303 303 302
295 297 298 297 295 295 296 296 295 296 298 299 301 301 300 302 299 302 302 298 299 299 307 306 308 311 309 316 315 314 314 304 302 300 303 302 301 310
295 296 297 295 294 293 293 296 296 298 298 298 299 300 301 302 302 304 304 302 300 299 306 309 308 312 310 310 313 312 312 314 312 307 301 301 304 307
294 296 296 294 293 293 293 293 292 294 296 295 296 296 298 299 301 303 305 307 306 305 308 310 308 310 309 308 309 312 311 312 309 308 306 300 299 299
296 296 294 294 293 293 293 292 292 294 294 293 294 295 297 299 301 302 304 307 308 309 310 310 310 311 312 309 309 309 309 309 308 307 307 307 307 307
297 297 296 295 294 294 294 294 294 295 294 294 295 296 298 298 298 301 302 303 303 303 308 310 311 312 310 310 311 311 311 308 307 306 303 302 302 303
294 294 294 295 295 296 296 296 295 295 293 294 294 296 296 297 297 300 300 302 301 302 307 310 312 310 306 310 310 314 310 306 305 302 302 299 298 299
292 293 294 296 296 297 297 298 299 299 298 297 297 297 297 297 298 299 300 300 301 302 303 307 305 305 306 304 304 309 307 303 302 302 302 300 298 297
293 296 296 297 298 300 300 301 303 305 305 301 299 299 299 300 298 299 299 302 302 303 305 308 307 307 304 304 305 298 305 302 300 297 298 297 296 294
297 297 298 301 302 302 303 306 310 308 308 307 302 302 302 302 300 301 302 302 304 305 305 309 308 310 308 305 301 299 292 302 300 295 292 293 293 294
299 298 298 298 298 299 300 302 306 308 306 306 306 305 304 303 303 304 304 297 299 307 305 306 310 297 306 305 301 295 294 295 299 297 294 294 295 296
297 296 295 295 295 295 296 298 301 307 310 309 307 307 306 306 306 306 305 304 307 308 307 305 305 305 306 303 296 292 292 294 295 295 295 297 300 298
294 295 294 293 293 293 293 293 295 298 303 310 308 309 309 308 308 307 307 308 308 306 304 302 302 301 299 298 293 293 293 294 294 293 293 295 295 296

GFSNE_sfc_thetae_141.txt.gz
Theta_e
337 337 335 336 335 333 331 329 325 320 317 321 320 332 327 328 329 331 331 328 326 323 320 319 320 321 322 322 323 325 325 326 327 329 330 331 333 335
333 333 333 332 332 332 331 329 326 322 316 321 323 328 333 329 330 331 332 327 324 321 320 319 318 319 319 320 321 322 323 324 324 325 326 327 328 329
326 326 327 329 329 330 331 329 326 324 321 323 327 330 330 329 331 333 333 333 331 321 321 319 317 317 317 317 318 320 321 322 322 322 323 324 324 326
319 321 321 323 322 322 322 324 324 324 321 320 326 327 328 331 331 332 331 331 331 325 320 318 316 315 314 314 315 316 317 316 317 317 316 317 319 322
315 316 316 317 317 317 317 317 314 315 316 316 318 321 322 323 325 327 329 331 330 326 319 318 317 316 315 314 313 313 312 310 309 309 311 313 314 316
311 312 313 313 314 315 315 316 316 314 314 313 312 312 314 319 319 318 317 321 321 325 323 320 318 318 315 314 314 314 312 308 306 305 305 306 305 308
307 307 308 308 307 309 310 312 313 311 310 309 308 309 309 310 312 314 314 316 319 320 320 321 322 324 324 316 319 317 312 308 306 305 305 304 304 305
303 304 305 304 305 304 304 305 306 306 307 306 306 306 310 310 312 311 311 310 308 316 315 314 319 318 321 322 316 312 310 308 306 305 305 305 305 304
301 301 302 304 303 304 303 303 302 302 303 305 305 306 308 310 311 310 311 310 309 313 314 309 314 313 317 318 311 309 307 304 303 304 304 306 303 301
299 299 300 300 301 301 301 300 301 303 303 304 304 304 306 309 309 309 309 309 310 310 312 304 311 311 315 318 309 305 304 303 302 302 302 303 302 301
302 301 299 298 297 296 298 297 298 299 301 300 299 298 297 297 299 303 301 302 300 304 310 310 311 312 314 318 319 305 304 304 302 301 303 303 302 302
300 302 299 299 295 294 297 296 295 297 301 301 301 301 300 302 300 302 303 299 300 300 309 307 308 310 307 313 318 318 317 302 301 301 304 303 301 313
297 299 301 296 294 294 293 298 298 300 299 300 300 300 301 302 303 305 306 303 301 301 306 308 307 309 308 308 317 315 316 315 317 310 300 301 301 307
297 301 303 296 294 294 294 295 294 295 298 298 297 297 299 300 302 304 307 307 309 307 306 308 304 304 305 311 312 314 315 315 320 312 309 301 300 299
299 299 296 295 294 294 294 294 294 294 293 293 297 301 302 302 302 302 304 307 308 310 309 309 308 307 307 309 311 311 311 312 314 310 309 309 309 309
301 301 299 296 295 295 295 296 296 295 294 293 294 297 303 300 298 300 300 304 306 305 309 311 310 310 306 308 316 310 312 312 309 308 306 306 306 307
294 298 299 299 299 300 301 302 302 298 295 295 294 295 297 299 299 301 302 302 303 304 307 308 310 310 308 311 309 313 314 310 309 305 305 304 302 302
295 298 298 299 300 301 302 303 306 305 301 297 295 295 296 298 299 300 301 301 302 305 306 306 306 305 305 304 302 312 312 308 305 304 304 305 304 301
297 297 297 296 297 298 300 302 303 308 308 302 298 298 299 299 298 300 299 301 302 305 306 306 307 307 304 303 305 296 308 305 303 300 299 301 302 299
296 295 294 295 294 295 296 298 302 308 307 303 302 301 301 302 303 301 301 303 304 306 306 307 308 309 307 307 305 300 292 304 302 297 295 295 295 295
294 294 295 295 293 294 295 295 298 300 308 307 307 306 307 307 305 306 307 296 299 307 305 306 311 296 314 312 305 297 295 295 300 299 296 297 297 302
293 294 295 294 294 293 293 294 294 296 300 308 309 309 309 309 307 306 306 305 307 310 311 313 315 314 313 311 305 295 293 295 296 296 295 296 301 303
292 292 293 293 293 292 292 292 292 293 295 299 307 310 310 309 308 310 310 310 309 306 305 304 302 302 300 298 296 295 295 295 295 293 292 295 295 296